Wetterdaten: Mittwoch, 06.12.2017
Datum Zeit Temp. Aussen Temp. o. S. +5cm Feuchte Auss BlattFeu 1 Luftdruck Regen Sonnenschein Regendauer Solar Windben Empfang
06.12.2017 00:00 6,3 C 6,1 C 5,0 C 85 % 0 lf 1032,1 hPa 0,0 l/m 0 min 0 min 0 W/m 18,0 km/h (3 Bft) 93,62 %
06.12.2017 00:02 6,4 C 6,1 C 5,0 C 85 % 0 lf 1032,2 hPa 0,0 l/m 0 min 0 min 0 W/m 27,0 km/h (4 Bft) 87,88 %
06.12.2017 00:04 6,4 C 6,1 C 5,0 C 85 % 0 lf 1032,2 hPa 0,0 l/m 0 min 0 min 0 W/m 22,5 km/h (4 Bft) 93,62 %
06.12.2017 00:07 6,3 C 6,1 C 5,0 C 85 % 0 lf 1032,2 hPa 0,0 l/m 0 min 0 min 0 W/m 15,8 km/h (3 Bft) 93,62 %
06.12.2017 00:08 6,3 C 6,1 C 5,0 C 85 % 0 lf 1032,2 hPa 0,0 l/m 0 min 0 min 0 W/m 18,0 km/h (3 Bft) 93,33 %
06.12.2017 00:10 6,3 C 6,1 C 5,0 C 85 % 0 lf 1032,2 hPa 0,0 l/m 0 min 0 min 0 W/m 18,0 km/h (3 Bft) 95,74 %
06.12.2017 00:12 6,3 C 6,1 C 5,0 C 85 % 0 lf 1032,2 hPa 0,0 l/m 0 min 0 min 0 W/m 20,3 km/h (4 Bft) 89,36 %
06.12.2017 00:14 6,3 C 6,1 C 5,0 C 85 % 0 lf 1032,1 hPa 0,0 l/m 0 min 0 min 0 W/m 20,3 km/h (4 Bft) 89,36 %
06.12.2017 00:16 6,3 C 6,1 C 5,0 C 85 % 0 lf 1032,2 hPa 0,0 l/m 0 min 0 min 0 W/m 22,5 km/h (4 Bft) 93,62 %
06.12.2017 00:18 6,3 C 6,1 C 5,0 C 85 % 0 lf 1032,2 hPa 0,0 l/m 0 min 0 min 0 W/m 18,0 km/h (3 Bft) 93,48 %
06.12.2017 00:20 6,3 C 6,1 C 5,0 C 85 % 0 lf 1032,2 hPa 0,0 l/m 0 min 0 min 0 W/m 15,8 km/h (3 Bft) 93,62 %
06.12.2017 00:22 6,3 C 6,1 C 5,0 C 85 % 0 lf 1032,1 hPa 0,0 l/m 0 min 0 min 0 W/m 20,3 km/h (4 Bft) 93,62 %
06.12.2017 00:24 6,3 C 6,1 C 5,0 C 85 % 0 lf 1032,2 hPa 0,0 l/m 0 min 0 min 0 W/m 22,5 km/h (4 Bft) 91,49 %
06.12.2017 00:26 6,3 C 6,1 C 5,0 C 85 % 0 lf 1032,3 hPa 0,0 l/m 0 min 0 min 0 W/m 18,0 km/h (3 Bft) 89,36 %
06.12.2017 00:28 6,3 C 6,1 C 5,0 C 85 % 0 lf 1032,3 hPa 0,0 l/m 0 min 0 min 0 W/m 13,5 km/h (3 Bft) 86,96 %
06.12.2017 00:30 6,3 C 6,1 C 5,0 C 85 % 0 lf 1032,2 hPa 0,0 l/m 0 min 0 min 0 W/m 18,0 km/h (3 Bft) 93,62 %
06.12.2017 00:32 6,3 C 6,1 C 5,0 C 85 % 0 lf 1032,2 hPa 0,0 l/m 0 min 0 min 0 W/m 18,0 km/h (3 Bft) 93,62 %
06.12.2017 00:34 6,3 C 6,1 C 5,0 C 85 % 0 lf 1032,2 hPa 0,0 l/m 0 min 0 min 0 W/m 15,8 km/h (3 Bft) 91,49 %
06.12.2017 00:36 6,3 C 6,1 C 5,0 C 85 % 0 lf 1032,2 hPa 0,0 l/m 0 min 0 min 0 W/m 20,3 km/h (4 Bft) 93,62 %
06.12.2017 00:38 6,3 C 6,1 C 5,0 C 85 % 0 lf 1032,2 hPa 0,0 l/m 0 min 0 min 0 W/m 18,0 km/h (3 Bft) 95,74 %
06.12.2017 00:40 6,3 C 6,1 C 5,0 C 85 % 0 lf 1032,2 hPa 0,0 l/m 0 min 0 min 0 W/m 18,0 km/h (3 Bft) 95,65 %
06.12.2017 00:42 6,3 C 6,1 C 5,0 C 85 % 0 lf 1032,2 hPa 0,0 l/m 0 min 0 min 0 W/m 20,3 km/h (4 Bft) 93,62 %
06.12.2017 00:44 6,3 C 6,1 C 5,0 C 85 % 0 lf 1032,1 hPa 0,0 l/m 0 min 0 min 0 W/m 20,3 km/h (4 Bft) 95,74 %
06.12.2017 00:46 6,3 C 6,1 C 5,0 C 85 % 0 lf 1032,1 hPa 0,0 l/m 0 min 0 min 0 W/m 18,0 km/h (3 Bft) 93,62 %
06.12.2017 00:48 6,3 C 6,1 C 5,0 C 85 % 0 lf 1032,1 hPa 0,0 l/m 0 min 0 min 0 W/m 20,3 km/h (4 Bft) 95,74 %
06.12.2017 00:50 6,3 C 6,1 C 5,0 C 85 % 0 lf 1032,1 hPa 0,0 l/m 0 min 0 min 0 W/m 24,8 km/h (4 Bft) 93,62 %
06.12.2017 00:52 6,3 C 6,1 C 5,0 C 85 % 0 lf 1032,1 hPa 0,0 l/m 0 min 0 min 0 W/m 24,8 km/h (4 Bft) 95,65 %
06.12.2017 00:54 6,3 C 6,1 C 5,0 C 85 % 0 lf 1032,1 hPa 0,0 l/m 0 min 0 min 0 W/m 18,0 km/h (3 Bft) 97,87 %
06.12.2017 00:56 6,2 C 6,1 C 5,0 C 86 % 0 lf 1032,1 hPa 0,0 l/m 0 min 0 min 0 W/m 27,0 km/h (4 Bft) 100,00 %
06.12.2017 00:58 6,2 C 6,1 C 5,0 C 86 % 0 lf 1032,1 hPa 0,0 l/m 0 min 0 min 0 W/m 15,8 km/h (3 Bft) 100,00 %
06.12.2017 01:00 6,2 C 6,1 C 5,0 C 86 % 0 lf 1032,1 hPa 0,0 l/m 0 min 0 min 0 W/m 18,0 km/h (3 Bft) 100,00 %
06.12.2017 01:02 6,2 C 6,1 C 5,0 C 86 % 0 lf 1032,1 hPa 0,0 l/m 0 min 0 min 0 W/m 20,3 km/h (4 Bft) 95,74 %
06.12.2017 01:04 6,2 C 6,1 C 5,0 C 86 % 0 lf 1032,1 hPa 0,0 l/m 0 min 0 min 0 W/m 22,5 km/h (4 Bft) 97,83 %
06.12.2017 01:06 6,2 C 6,1 C 5,0 C 86 % 0 lf 1032,1 hPa 0,0 l/m 0 min 0 min 0 W/m 22,5 km/h (4 Bft) 100,00 %
06.12.2017 01:10 6,2 C 6,1 C 5,0 C 86 % 0 lf 1032,2 hPa 0,0 l/m 0 min 0 min 0 W/m 24,8 km/h (4 Bft) 100,00 %
06.12.2017 01:12 6,2 C 6,1 C 5,0 C 86 % 0 lf 1032,2 hPa 0,0 l/m 0 min 0 min 0 W/m 27,0 km/h (4 Bft) 97,87 %
06.12.2017 01:14 6,2 C 6,1 C 5,0 C 86 % 0 lf 1032,1 hPa 0,0 l/m 0 min 0 min 0 W/m 15,8 km/h (3 Bft) 97,87 %
06.12.2017 01:16 6,2 C 6,1 C 5,0 C 86 % 0 lf 1032,0 hPa 0,0 l/m 0 min 0 min 0 W/m 20,3 km/h (4 Bft) 100,00 %
06.12.2017 01:18 6,2 C 6,1 C 5,0 C 86 % 0 lf 1032,1 hPa 0,0 l/m 0 min 0 min 0 W/m 20,3 km/h (4 Bft) 100,00 %
06.12.2017 01:20 6,2 C 6,1 C 5,0 C 86 % 0 lf 1032,0 hPa 0,0 l/m 0 min 0 min 0 W/m 20,3 km/h (4 Bft) 100,00 %
06.12.2017 01:22 6,2 C 6,1 C 5,0 C 86 % 0 lf 1032,0 hPa 0,0 l/m 0 min 0 min 0 W/m 22,5 km/h (4 Bft) 95,74 %
06.12.2017 01:24 6,2 C 6,1 C 5,0 C 86 % 0 lf 1032,0 hPa 0,0 l/m 0 min 0 min 0 W/m 18,0 km/h (3 Bft) 97,87 %
06.12.2017 01:26 6,2 C 6,1 C 5,0 C 86 % 0 lf 1032,0 hPa 0,0 l/m 0 min 0 min 0 W/m 20,3 km/h (4 Bft) 100,00 %
06.12.2017 01:28 6,2 C 6,1 C 5,0 C 86 % 0 lf 1031,9 hPa 0,0 l/m 0 min 0 min 0 W/m 20,3 km/h (4 Bft) 97,87 %
06.12.2017 01:30 6,2 C 6,1 C 5,0 C 86 % 0 lf 1032,0 hPa 0,0 l/m 0 min 0 min 0 W/m 18,0 km/h (3 Bft) 97,87 %
06.12.2017 01:32 6,2 C 6,1 C 5,0 C 86 % 0 lf 1031,9 hPa 0,0 l/m 0 min 0 min 0 W/m 20,3 km/h (4 Bft) 97,83 %
06.12.2017 01:34 6,2 C 6,1 C 5,0 C 86 % 0 lf 1031,9 hPa 0,0 l/m 0 min 0 min 0 W/m 22,5 km/h (4 Bft) 97,87 %
06.12.2017 01:36 6,2 C 6,1 C 5,0 C 86 % 0 lf 1031,9 hPa 0,0 l/m 0 min 0 min 0 W/m 20,3 km/h (4 Bft) 95,74 %
06.12.2017 01:38 6,2 C 6,1 C 5,0 C 86 % 0 lf 1031,9 hPa 0,0 l/m 0 min 0 min 0 W/m 18,0 km/h (3 Bft) 95,74 %
06.12.2017 01:40 6,2 C 6,1 C 5,0 C 86 % 0 lf 1031,9 hPa 0,0 l/m 0 min 0 min 0 W/m 15,8 km/h (3 Bft) 97,87 %
06.12.2017 01:42 6,2 C 6,1 C 5,0 C 86 % 0 lf 1032,1 hPa 0,0 l/m 0 min 0 min 0 W/m 22,5 km/h (4 Bft) 97,83 %
06.12.2017 01:44 6,2 C 6,1 C 4,4 C 87 % 0 lf 1031,9 hPa 0,0 l/m 0 min 0 min 0 W/m 18,0 km/h (3 Bft) 97,87 %
06.12.2017 01:46 6,1 C 6,1 C 4,4 C 87 % 0 lf 1032,0 hPa 0,0 l/m 0 min 0 min 0 W/m 20,3 km/h (4 Bft) 93,62 %
06.12.2017 01:48 6,1 C 6,1 C 4,4 C 87 % 0 lf 1032,0 hPa 0,0 l/m 0 min 0 min 0 W/m 22,5 km/h (4 Bft) 97,87 %
06.12.2017 01:50 6,1 C 6,1 C 4,4 C 87 % 0 lf 1031,9 hPa 0,0 l/m 0 min 0 min 0 W/m 18,0 km/h (3 Bft) 95,74 %
06.12.2017 01:52 6,1 C 6,1 C 4,4 C 87 % 0 lf 1031,9 hPa 0,0 l/m 0 min 0 min 0 W/m 18,0 km/h (3 Bft) 97,87 %
06.12.2017 01:54 6,1 C 6,1 C 4,4 C 87 % 0 lf 1031,9 hPa 0,0 l/m 0 min 0 min 0 W/m 15,8 km/h (3 Bft) 97,83 %
06.12.2017 01:56 6,1 C 6,1 C 4,4 C 87 % 0 lf 1031,9 hPa 0,0 l/m 0 min 0 min 0 W/m 20,3 km/h (4 Bft) 97,87 %
06.12.2017 01:58 6,1 C 6,1 C 4,4 C 87 % 0 lf 1031,9 hPa 0,0 l/m 0 min 0 min 0 W/m 18,0 km/h (3 Bft) 97,87 %
06.12.2017 02:00 6,1 C 6,1 C 4,4 C 87 % 0 lf 1031,9 hPa 0,0 l/m 0 min 0 min 0 W/m 22,5 km/h (4 Bft) 100,00 %
06.12.2017 02:02 6,1 C 6,1 C 5,0 C 87 % 0 lf 1031,9 hPa 0,0 l/m 0 min 0 min 0 W/m 22,5 km/h (4 Bft) 97,87 %
06.12.2017 02:04 6,1 C 6,1 C 5,0 C 87 % 0 lf 1031,8 hPa 0,0 l/m 0 min 0 min 0 W/m 22,5 km/h (4 Bft) 100,00 %
06.12.2017 02:06 6,1 C 6,1 C 5,0 C 87 % 0 lf 1031,9 hPa 0,0 l/m 0 min 0 min 0 W/m 20,3 km/h (4 Bft) 100,00 %
06.12.2017 02:10 6,1 C 6,1 C 5,0 C 87 % 0 lf 1031,8 hPa 0,0 l/m 0 min 0 min 0 W/m 27,0 km/h (4 Bft) 99,02 %
06.12.2017 02:12 6,0 C 6,1 C 5,0 C 87 % 0 lf 1031,8 hPa 0,0 l/m 0 min 0 min 0 W/m 18,0 km/h (3 Bft) 97,83 %
06.12.2017 02:14 6,1 C 6,1 C 5,0 C 87 % 0 lf 1031,8 hPa 0,0 l/m 0 min 0 min 0 W/m 18,0 km/h (3 Bft) 100,00 %
06.12.2017 02:16 6,1 C 6,1 C 5,0 C 87 % 0 lf 1031,8 hPa 0,0 l/m 0 min 0 min 0 W/m 20,3 km/h (4 Bft) 97,87 %
06.12.2017 02:18 6,1 C 6,1 C 5,0 C 87 % 0 lf 1031,7 hPa 0,0 l/m 0 min 0 min 0 W/m 20,3 km/h (4 Bft) 97,87 %
06.12.2017 02:20 6,1 C 6,1 C 5,0 C 87 % 0 lf 1031,7 hPa 0,0 l/m 0 min 0 min 0 W/m 27,0 km/h (4 Bft) 100,00 %
06.12.2017 02:22 6,1 C 6,1 C 5,0 C 87 % 0 lf 1031,7 hPa 0,0 l/m 0 min 0 min 0 W/m 22,5 km/h (4 Bft) 97,83 %
06.12.2017 02:24 6,1 C 6,1 C 4,4 C 87 % 0 lf 1031,8 hPa 0,0 l/m 0 min 0 min 0 W/m 15,8 km/h (3 Bft) 97,87 %
06.12.2017 02:26 6,1 C 6,1 C 4,4 C 87 % 0 lf 1031,7 hPa 0,0 l/m 0 min 0 min 0 W/m 24,8 km/h (4 Bft) 95,74 %
06.12.2017 02:28 6,1 C 6,1 C 4,4 C 87 % 0 lf 1031,8 hPa 0,0 l/m 0 min 0 min 0 W/m 24,8 km/h (4 Bft) 100,00 %
06.12.2017 02:30 6,1 C 6,1 C 4,4 C 87 % 0 lf 1031,8 hPa 0,0 l/m 0 min 0 min 0 W/m 24,8 km/h (4 Bft) 100,00 %
06.12.2017 02:32 6,1 C 6,1 C 5,0 C 87 % 0 lf 1031,8 hPa 0,0 l/m 0 min 0 min 0 W/m 29,3 km/h (5 Bft) 100,00 %
06.12.2017 02:34 6,1 C 6,1 C 4,4 C 87 % 0 lf 1031,8 hPa 0,0 l/m 0 min 0 min 0 W/m 15,8 km/h (3 Bft) 97,83 %
06.12.2017 02:36 6,1 C 6,1 C 4,4 C 87 % 0 lf 1031,8 hPa 0,0 l/m 0 min 0 min 0 W/m 18,0 km/h (3 Bft) 97,87 %
06.12.2017 02:38 6,0 C 6,1 C 4,4 C 87 % 0 lf 1031,8 hPa 0,0 l/m 0 min 0 min 0 W/m 13,5 km/h (3 Bft) 97,87 %
06.12.2017 02:40 6,1 C 6,1 C 4,4 C 87 % 0 lf 1031,8 hPa 0,0 l/m 0 min 0 min 0 W/m 18,0 km/h (3 Bft) 97,87 %
06.12.2017 02:42 6,1 C 6,1 C 4,4 C 87 % 0 lf 1031,7 hPa 0,0 l/m 0 min 0 min 0 W/m 18,0 km/h (3 Bft) 93,62 %
06.12.2017 02:44 6,0 C 6,1 C 4,4 C 87 % 0 lf 1031,8 hPa 0,0 l/m 0 min 0 min 0 W/m 18,0 km/h (3 Bft) 97,87 %
06.12.2017 02:46 6,0 C 6,1 C 4,4 C 88 % 0 lf 1031,8 hPa 0,0 l/m 0 min 0 min 0 W/m 18,0 km/h (3 Bft) 95,65 %
06.12.2017 02:48 6,0 C 6,1 C 4,4 C 88 % 0 lf 1031,7 hPa 0,0 l/m 0 min 0 min 0 W/m 18,0 km/h (3 Bft) 97,87 %
06.12.2017 02:50 6,0 C 6,1 C 4,4 C 88 % 0 lf 1031,7 hPa 0,0 l/m 0 min 0 min 0 W/m 22,5 km/h (4 Bft) 97,87 %
06.12.2017 02:52 6,0 C 6,1 C 4,4 C 88 % 0 lf 1031,8 hPa 0,0 l/m 0 min 0 min 0 W/m 15,8 km/h (3 Bft) 93,62 %
06.12.2017 02:54 6,0 C 6,1 C 4,4 C 88 % 0 lf 1031,7 hPa 0,0 l/m 0 min 0 min 0 W/m 13,5 km/h (3 Bft) 95,74 %
06.12.2017 02:56 6,0 C 6,1 C 4,4 C 88 % 0 lf 1031,7 hPa 0,0 l/m 0 min 0 min 0 W/m 13,5 km/h (3 Bft) 93,62 %
06.12.2017 02:58 6,0 C 6,1 C 4,4 C 88 % 0 lf 1031,8 hPa 0,0 l/m 0 min 0 min 0 W/m 11,3 km/h (2 Bft) 95,65 %
06.12.2017 03:00 6,0 C 6,1 C 4,4 C 88 % 0 lf 1031,7 hPa 0,0 l/m 0 min 0 min 0 W/m 24,8 km/h (4 Bft) 95,74 %
06.12.2017 03:02 6,0 C 6,1 C 4,4 C 88 % 0 lf 1031,7 hPa 0,0 l/m 0 min 0 min 0 W/m 18,0 km/h (3 Bft) 85,11 %
06.12.2017 03:04 6,0 C 6,1 C 4,4 C 88 % 0 lf 1031,7 hPa 0,0 l/m 0 min 0 min 0 W/m 22,5 km/h (4 Bft) 91,49 %
06.12.2017 03:06 6,0 C 6,1 C 4,4 C 88 % 0 lf 1031,7 hPa 0,0 l/m 0 min 0 min 0 W/m 20,3 km/h (4 Bft) 95,74 %
06.12.2017 03:10 6,0 C 6,1 C 4,4 C 88 % 0 lf 1031,6 hPa 0,0 l/m 0 min 0 min 0 W/m 20,3 km/h (4 Bft) 94,79 %
06.12.2017 03:12 6,0 C 6,1 C 4,4 C 88 % 0 lf 1031,7 hPa 0,0 l/m 0 min 0 min 0 W/m 20,3 km/h (4 Bft) 91,49 %
06.12.2017 03:14 6,0 C 6,1 C 4,4 C 88 % 0 lf 1031,6 hPa 0,0 l/m 0 min 0 min 0 W/m 20,3 km/h (4 Bft) 95,74 %
06.12.2017 03:16 6,0 C 6,1 C 4,4 C 88 % 0 lf 1031,6 hPa 0,0 l/m 0 min 0 min 0 W/m 15,8 km/h (3 Bft) 95,74 %
06.12.2017 03:18 6,0 C 6,1 C 4,4 C 88 % 0 lf 1031,6 hPa 0,0 l/m 0 min 0 min 0 W/m 15,8 km/h (3 Bft) 97,87 %
06.12.2017 03:20 6,0 C 6,1 C 4,4 C 88 % 0 lf 1031,6 hPa 0,0 l/m 0 min 0 min 0 W/m 18,0 km/h (3 Bft) 95,65 %
06.12.2017 03:22 6,0 C 6,1 C 4,4 C 88 % 0 lf 1031,6 hPa 0,0 l/m 0 min 0 min 0 W/m 15,8 km/h (3 Bft) 91,49 %
06.12.2017 03:24 6,0 C 6,1 C 4,4 C 88 % 0 lf 1031,5 hPa 0,0 l/m 0 min 0 min 0 W/m 15,8 km/h (3 Bft) 95,74 %
06.12.2017 03:26 6,0 C 6,1 C 4,4 C 88 % 0 lf 1031,5 hPa 0,0 l/m 0 min 0 min 0 W/m 18,0 km/h (3 Bft) 93,62 %
06.12.2017 03:28 6,0 C 6,1 C 4,4 C 88 % 0 lf 1031,5 hPa 0,0 l/m 0 min 0 min 0 W/m 20,3 km/h (4 Bft) 95,74 %
06.12.2017 03:30 6,0 C 6,1 C 5,0 C 88 % 0 lf 1031,5 hPa 0,0 l/m 0 min 0 min 0 W/m 18,0 km/h (3 Bft) 95,74 %
06.12.2017 03:32 6,0 C 6,1 C 4,4 C 88 % 0 lf 1031,5 hPa 0,0 l/m 0 min 0 min 0 W/m 13,5 km/h (3 Bft) 93,48 %
06.12.2017 03:34 6,0 C 6,1 C 4,4 C 88 % 0 lf 1031,6 hPa 0,0 l/m 0 min 0 min 0 W/m 15,8 km/h (3 Bft) 95,74 %
06.12.2017 03:36 6,0 C 6,1 C 4,4 C 88 % 0 lf 1031,6 hPa 0,0 l/m 0 min 0 min 0 W/m 13,5 km/h (3 Bft) 93,62 %
06.12.2017 03:38 6,0 C 6,1 C 4,4 C 88 % 0 lf 1031,6 hPa 0,0 l/m 0 min 0 min 0 W/m 13,5 km/h (3 Bft) 95,74 %
06.12.2017 03:40 6,0 C 6,1 C 4,4 C 88 % 0 lf 1031,6 hPa 0,0 l/m 0 min 0 min 0 W/m 18,0 km/h (3 Bft) 93,62 %
06.12.2017 03:42 6,0 C 6,1 C 4,4 C 88 % 0 lf 1031,6 hPa 0,0 l/m 0 min 0 min 0 W/m 18,0 km/h (3 Bft) 93,62 %
06.12.2017 03:44 6,0 C 6,1 C 5,0 C 88 % 0 lf 1031,5 hPa 0,0 l/m 0 min 0 min 0 W/m 18,0 km/h (3 Bft) 93,48 %
06.12.2017 03:46 6,0 C 6,1 C 5,0 C 88 % 0 lf 1031,4 hPa 0,0 l/m 0 min 0 min 0 W/m 15,8 km/h (3 Bft) 95,74 %
06.12.2017 03:48 6,0 C 6,1 C 4,4 C 88 % 0 lf 1031,4 hPa 0,0 l/m 0 min 0 min 0 W/m 13,5 km/h (3 Bft) 95,74 %
06.12.2017 03:50 6,0 C 6,1 C 4,4 C 88 % 0 lf 1031,4 hPa 0,0 l/m 0 min 0 min 0 W/m 15,8 km/h (3 Bft) 95,74 %
06.12.2017 03:52 6,0 C 6,1 C 4,4 C 88 % 0 lf 1031,4 hPa 0,0 l/m 0 min 0 min 0 W/m 18,0 km/h (3 Bft) 95,74 %
06.12.2017 03:54 6,0 C 6,1 C 5,0 C 88 % 0 lf 1031,4 hPa 0,0 l/m 0 min 0 min 0 W/m 15,8 km/h (3 Bft) 95,74 %
06.12.2017 03:56 6,0 C 6,1 C 5,0 C 88 % 0 lf 1031,5 hPa 0,0 l/m 0 min 0 min 0 W/m 15,8 km/h (3 Bft) 97,83 %
06.12.2017 03:58 6,0 C 6,1 C 5,0 C 88 % 0 lf 1031,4 hPa 0,0 l/m 0 min 0 min 0 W/m 15,8 km/h (3 Bft) 97,87 %
06.12.2017 04:00 6,0 C 6,1 C 5,0 C 88 % 0 lf 1031,4 hPa 0,0 l/m 0 min 0 min 0 W/m 18,0 km/h (3 Bft) 97,87 %
06.12.2017 04:02 6,0 C 6,1 C 5,0 C 88 % 0 lf 1031,5 hPa 0,0 l/m 0 min 0 min 0 W/m 11,3 km/h (2 Bft) 100,00 %
06.12.2017 04:04 6,0 C 6,1 C 5,0 C 88 % 0 lf 1031,4 hPa 0,0 l/m 0 min 0 min 0 W/m 18,0 km/h (3 Bft) 91,49 %
06.12.2017 04:06 6,0 C 6,1 C 5,0 C 88 % 0 lf 1031,5 hPa 0,0 l/m 0 min 0 min 0 W/m 13,5 km/h (3 Bft) 97,83 %
06.12.2017 04:10 6,0 C 6,1 C 5,0 C 88 % 0 lf 1031,2 hPa 0,0 l/m 0 min 0 min 0 W/m 15,8 km/h (3 Bft) 95,79 %
06.12.2017 04:12 6,0 C 6,1 C 5,0 C 88 % 0 lf 1031,2 hPa 0,0 l/m 0 min 0 min 0 W/m 18,0 km/h (3 Bft) 97,87 %
06.12.2017 04:14 6,0 C 6,1 C 5,0 C 88 % 0 lf 1031,3 hPa 0,0 l/m 0 min 0 min 0 W/m 13,5 km/h (3 Bft) 95,74 %
06.12.2017 04:16 6,0 C 6,1 C 5,0 C 88 % 0 lf 1031,2 hPa 0,0 l/m 0 min 0 min 0 W/m 18,0 km/h (3 Bft) 97,87 %
06.12.2017 04:18 6,0 C 6,1 C 5,0 C 88 % 0 lf 1031,2 hPa 0,0 l/m 0 min 0 min 0 W/m 13,5 km/h (3 Bft) 95,74 %
06.12.2017 04:20 6,1 C 6,1 C 5,0 C 88 % 0 lf 1031,2 hPa 0,0 l/m 0 min 0 min 0 W/m 13,5 km/h (3 Bft) 97,87 %
06.12.2017 04:22 6,1 C 6,1 C 5,0 C 88 % 0 lf 1031,3 hPa 0,0 l/m 0 min 0 min 0 W/m 15,8 km/h (3 Bft) 97,83 %
06.12.2017 04:24 6,1 C 6,1 C 5,0 C 88 % 0 lf 1031,3 hPa 0,0 l/m 0 min 0 min 0 W/m 13,5 km/h (3 Bft) 95,74 %
06.12.2017 04:26 6,1 C 6,1 C 5,0 C 88 % 0 lf 1031,2 hPa 0,0 l/m 0 min 0 min 0 W/m 9,0 km/h (2 Bft) 97,87 %
06.12.2017 04:28 6,1 C 6,1 C 5,0 C 88 % 0 lf 1031,1 hPa 0,0 l/m 0 min 0 min 0 W/m 11,3 km/h (2 Bft) 97,87 %
06.12.2017 04:30 6,1 C 6,1 C 5,0 C 88 % 0 lf 1031,2 hPa 0,0 l/m 0 min 0 min 0 W/m 11,3 km/h (2 Bft) 100,00 %
06.12.2017 04:32 6,1 C 6,1 C 5,0 C 88 % 0 lf 1031,2 hPa 0,0 l/m 0 min 0 min 0 W/m 13,5 km/h (3 Bft) 95,74 %
06.12.2017 04:34 6,1 C 6,1 C 5,0 C 88 % 0 lf 1031,2 hPa 0,0 l/m 0 min 0 min 0 W/m 11,3 km/h (2 Bft) 97,83 %
06.12.2017 04:36 6,1 C 6,1 C 5,0 C 88 % 0 lf 1031,2 hPa 0,0 l/m 0 min 0 min 0 W/m 11,3 km/h (2 Bft) 97,87 %
06.12.2017 04:38 6,1 C 6,1 C 5,0 C 88 % 0 lf 1031,1 hPa 0,0 l/m 0 min 0 min 0 W/m 15,8 km/h (3 Bft) 95,74 %
06.12.2017 04:40 6,1 C 6,1 C 5,0 C 88 % 0 lf 1031,2 hPa 0,0 l/m 0 min 0 min 0 W/m 13,5 km/h (3 Bft) 97,87 %
06.12.2017 04:42 6,1 C 6,1 C 5,0 C 88 % 0 lf 1031,1 hPa 0,0 l/m 0 min 0 min 0 W/m 18,0 km/h (3 Bft) 97,87 %
06.12.2017 04:44 6,1 C 6,1 C 5,0 C 88 % 0 lf 1031,0 hPa 0,0 l/m 0 min 0 min 0 W/m 15,8 km/h (3 Bft) 95,74 %
06.12.2017 04:46 6,1 C 6,1 C 5,0 C 88 % 0 lf 1031,0 hPa 0,0 l/m 0 min 0 min 0 W/m 15,8 km/h (3 Bft) 100,00 %
06.12.2017 04:48 6,1 C 6,1 C 5,0 C 88 % 0 lf 1031,0 hPa 0,0 l/m 0 min 0 min 0 W/m 15,8 km/h (3 Bft) 100,00 %
06.12.2017 04:50 6,1 C 6,1 C 5,0 C 88 % 0 lf 1030,9 hPa 0,0 l/m 0 min 0 min 0 W/m 15,8 km/h (3 Bft) 97,87 %
06.12.2017 04:52 6,1 C 6,1 C 5,0 C 88 % 0 lf 1030,9 hPa 0,0 l/m 0 min 0 min 0 W/m 13,5 km/h (3 Bft) 97,87 %
06.12.2017 04:54 6,1 C 6,1 C 5,0 C 88 % 0 lf 1030,8 hPa 0,0 l/m 0 min 0 min 0 W/m 11,3 km/h (2 Bft) 97,87 %
06.12.2017 04:56 6,1 C 6,1 C 5,0 C 88 % 0 lf 1030,9 hPa 0,0 l/m 0 min 0 min 0 W/m 9,0 km/h (2 Bft) 100,00 %
06.12.2017 04:58 6,1 C 6,1 C 5,0 C 88 % 0 lf 1030,8 hPa 0,0 l/m 0 min 0 min 0 W/m 13,5 km/h (3 Bft) 100,00 %
06.12.2017 05:00 6,1 C 6,1 C 5,0 C 88 % 0 lf 1030,8 hPa 0,0 l/m 0 min 0 min 0 W/m 11,3 km/h (2 Bft) 97,87 %
06.12.2017 05:02 6,1 C 6,1 C 5,0 C 88 % 0 lf 1030,8 hPa 0,0 l/m 0 min 0 min 0 W/m 15,8 km/h (3 Bft) 100,00 %
06.12.2017 05:04 6,1 C 6,1 C 5,0 C 88 % 0 lf 1030,7 hPa 0,0 l/m 0 min 0 min 0 W/m 20,3 km/h (4 Bft) 97,87 %
06.12.2017 05:06 6,1 C 6,1 C 5,0 C 88 % 0 lf 1030,7 hPa 0,0 l/m 0 min 0 min 0 W/m 13,5 km/h (3 Bft) 95,74 %
06.12.2017 05:10 6,1 C 6,1 C 5,0 C 88 % 0 lf 1030,7 hPa 0,0 l/m 0 min 0 min 0 W/m 18,0 km/h (3 Bft) 97,56 %
06.12.2017 05:12 6,1 C 6,1 C 5,0 C 88 % 0 lf 1030,7 hPa 0,0 l/m 0 min 0 min 0 W/m 22,5 km/h (4 Bft) 100,00 %
06.12.2017 05:14 6,1 C 6,1 C 5,0 C 88 % 0 lf 1030,8 hPa 0,0 l/m 0 min 0 min 0 W/m 13,5 km/h (3 Bft) 100,00 %
06.12.2017 05:16 6,2 C 6,1 C 5,0 C 88 % 0 lf 1030,8 hPa 0,0 l/m 0 min 0 min 0 W/m 15,8 km/h (3 Bft) 95,74 %
06.12.2017 05:18 6,2 C 6,1 C 5,0 C 88 % 0 lf 1030,8 hPa 0,0 l/m 0 min 0 min 0 W/m 18,0 km/h (3 Bft) 93,62 %
06.12.2017 05:20 6,2 C 6,1 C 5,0 C 88 % 0 lf 1031,0 hPa 0,0 l/m 0 min 0 min 0 W/m 18,0 km/h (3 Bft) 96,61 %
06.12.2017 05:22 6,2 C 6,1 C 5,0 C 88 % 0 lf 1030,9 hPa 0,0 l/m 0 min 0 min 0 W/m 22,5 km/h (4 Bft) 91,43 %
06.12.2017 05:24 6,2 C 6,1 C 5,0 C 88 % 0 lf 1030,8 hPa 0,0 l/m 0 min 0 min 0 W/m 13,5 km/h (3 Bft) 95,65 %
06.12.2017 05:26 6,2 C 6,1 C 5,0 C 88 % 0 lf 1030,8 hPa 0,0 l/m 0 min 0 min 0 W/m 18,0 km/h (3 Bft) 95,74 %
06.12.2017 05:28 6,2 C 6,1 C 5,0 C 88 % 0 lf 1030,8 hPa 0,0 l/m 0 min 0 min 0 W/m 20,3 km/h (4 Bft) 95,74 %
06.12.2017 05:30 6,2 C 6,1 C 5,0 C 88 % 0 lf 1030,8 hPa 0,0 l/m 0 min 0 min 0 W/m 20,3 km/h (4 Bft) 93,62 %
06.12.2017 05:32 6,2 C 6,1 C 5,0 C 88 % 0 lf 1030,8 hPa 0,0 l/m 0 min 0 min 0 W/m 18,0 km/h (3 Bft) 95,74 %
06.12.2017 05:34 6,2 C 6,1 C 5,0 C 88 % 0 lf 1030,8 hPa 0,0 l/m 0 min 0 min 0 W/m 18,0 km/h (3 Bft) 93,62 %
06.12.2017 05:35 6,2 C 6,1 C 5,0 C 88 % 0 lf 1030,8 hPa 0,0 l/m 0 min 0 min 0 W/m 18,0 km/h (3 Bft) 98,25 %
06.12.2017 05:40 6,2 C 6,1 C 5,0 C 88 % 0 lf 1030,6 hPa 0,0 l/m 0 min 0 min 0 W/m 15,8 km/h (3 Bft) 94,29 %
06.12.2017 05:42 6,2 C 6,1 C 5,0 C 88 % 0 lf 1030,7 hPa 0,0 l/m 0 min 0 min 0 W/m 18,0 km/h (3 Bft) 94,29 %
06.12.2017 05:44 6,2 C 6,1 C 5,0 C 88 % 0 lf 1030,7 hPa 0,0 l/m 0 min 0 min 0 W/m 13,5 km/h (3 Bft) 96,55 %
06.12.2017 05:46 6,3 C 6,1 C 5,0 C 88 % 0 lf 1030,6 hPa 0,0 l/m 0 min 0 min 0 W/m 15,8 km/h (3 Bft) 88,89 %
06.12.2017 05:48 6,2 C 6,1 C 5,0 C 88 % 0 lf 1030,6 hPa 0,0 l/m 0 min 0 min 0 W/m 15,8 km/h (3 Bft) 93,48 %
06.12.2017 05:50 6,2 C 6,1 C 5,0 C 88 % 0 lf 1030,7 hPa 0,0 l/m 0 min 0 min 0 W/m 20,3 km/h (4 Bft) 94,64 %
06.12.2017 05:52 6,3 C 6,1 C 5,0 C 88 % 0 lf 1030,7 hPa 0,0 l/m 0 min 0 min 0 W/m 15,8 km/h (3 Bft) 91,49 %
06.12.2017 05:54 6,3 C 6,1 C 5,0 C 88 % 0 lf 1030,7 hPa 0,0 l/m 0 min 0 min 0 W/m 18,0 km/h (3 Bft) 97,87 %
06.12.2017 05:56 6,3 C 6,1 C 5,0 C 88 % 0 lf 1030,7 hPa 0,0 l/m 0 min 0 min 0 W/m 15,8 km/h (3 Bft) 93,88 %
06.12.2017 05:58 6,3 C 6,1 C 5,0 C 88 % 0 lf 1030,7 hPa 0,0 l/m 0 min 0 min 0 W/m 15,8 km/h (3 Bft) 97,22 %
06.12.2017 06:00 6,3 C 6,1 C 5,0 C 88 % 0 lf 1030,6 hPa 0,0 l/m 0 min 0 min 0 W/m 15,8 km/h (3 Bft) 91,30 %
06.12.2017 06:02 6,3 C 6,1 C 5,0 C 88 % 0 lf 1030,6 hPa 0,0 l/m 0 min 0 min 0 W/m 20,3 km/h (4 Bft) 96,43 %
06.12.2017 06:04 6,3 C 6,1 C 5,0 C 88 % 0 lf 1030,6 hPa 0,0 l/m 0 min 0 min 0 W/m 20,3 km/h (4 Bft) 97,56 %
06.12.2017 06:06 6,3 C 6,1 C 5,0 C 88 % 0 lf 1030,6 hPa 0,0 l/m 0 min 0 min 0 W/m 13,5 km/h (3 Bft) 98,00 %
06.12.2017 06:10 6,3 C 6,1 C 5,0 C 88 % 0 lf 1030,5 hPa 0,0 l/m 0 min 0 min 0 W/m 22,5 km/h (4 Bft) 96,77 %
06.12.2017 06:12 6,3 C 6,1 C 5,0 C 88 % 0 lf 1030,5 hPa 0,0 l/m 0 min 0 min 0 W/m 20,3 km/h (4 Bft) 97,73 %
06.12.2017 06:14 6,3 C 6,1 C 5,0 C 88 % 0 lf 1030,5 hPa 0,0 l/m 0 min 0 min 0 W/m 15,8 km/h (3 Bft) 96,00 %
06.12.2017 06:16 6,3 C 6,1 C 5,0 C 88 % 0 lf 1030,5 hPa 0,0 l/m 0 min 0 min 0 W/m 18,0 km/h (3 Bft) 96,00 %
06.12.2017 06:18 6,4 C 6,1 C 5,0 C 88 % 0 lf 1030,5 hPa 0,0 l/m 0 min 0 min 0 W/m 15,8 km/h (3 Bft) 97,87 %
06.12.2017 06:20 6,4 C 6,1 C 5,0 C 88 % 0 lf 1030,4 hPa 0,0 l/m 0 min 0 min 0 W/m 18,0 km/h (3 Bft) 97,96 %
06.12.2017 06:22 6,4 C 6,1 C 5,0 C 88 % 0 lf 1030,5 hPa 0,0 l/m 0 min 0 min 0 W/m 13,5 km/h (3 Bft) 97,87 %
06.12.2017 06:24 6,4 C 6,1 C 5,0 C 88 % 0 lf 1030,4 hPa 0,0 l/m 0 min 0 min 0 W/m 20,3 km/h (4 Bft) 97,87 %
06.12.2017 06:26 6,4 C 6,1 C 5,0 C 88 % 0 lf 1030,4 hPa 0,0 l/m 0 min 0 min 0 W/m 24,8 km/h (4 Bft) 97,37 %
06.12.2017 06:28 6,4 C 6,1 C 5,0 C 88 % 0 lf 1030,5 hPa 0,0 l/m 0 min 0 min 0 W/m 13,5 km/h (3 Bft) 98,00 %
06.12.2017 06:30 6,4 C 6,1 C 5,0 C 88 % 0 lf 1030,4 hPa 0,0 l/m 0 min 0 min 0 W/m 22,5 km/h (4 Bft) 95,92 %
06.12.2017 06:32 6,4 C 6,1 C 5,0 C 88 % 0 lf 1030,4 hPa 0,0 l/m 0 min 0 min 0 W/m 20,3 km/h (4 Bft) 96,00 %
06.12.2017 06:34 6,4 C 6,1 C 5,0 C 88 % 0 lf 1030,4 hPa 0,0 l/m 0 min 0 min 0 W/m 18,0 km/h (3 Bft) 100,00 %
06.12.2017 06:36 6,4 C 6,1 C 5,0 C 88 % 0 lf 1030,4 hPa 0,0 l/m 0 min 0 min 0 W/m 20,3 km/h (4 Bft) 98,00 %
06.12.2017 06:38 6,4 C 6,1 C 5,0 C 88 % 0 lf 1030,4 hPa 0,0 l/m 0 min 0 min 0 W/m 18,0 km/h (3 Bft) 96,00 %
06.12.2017 06:40 6,4 C 6,1 C 5,0 C 88 % 0 lf 1030,3 hPa 0,0 l/m 0 min 0 min 0 W/m 20,3 km/h (4 Bft) 100,00 %
06.12.2017 06:42 6,4 C 6,7 C 5,0 C 88 % 0 lf 1030,3 hPa 0,0 l/m 0 min 0 min 0 W/m 18,0 km/h (3 Bft) 100,00 %
06.12.2017 06:44 6,4 C 6,1 C 5,0 C 88 % 0 lf 1030,2 hPa 0,0 l/m 0 min 0 min 0 W/m 18,0 km/h (3 Bft) 100,00 %
06.12.2017 06:46 6,4 C 6,1 C 5,0 C 88 % 0 lf 1030,3 hPa 0,0 l/m 0 min 0 min 0 W/m 20,3 km/h (4 Bft) 100,00 %
06.12.2017 06:48 6,4 C 6,1 C 5,0 C 88 % 0 lf 1030,3 hPa 0,0 l/m 0 min 0 min 0 W/m 15,8 km/h (3 Bft) 100,00 %
06.12.2017 06:50 6,4 C 6,1 C 5,0 C 88 % 0 lf 1030,2 hPa 0,0 l/m 0 min 0 min 0 W/m 20,3 km/h (4 Bft) 97,87 %
06.12.2017 06:52 6,4 C 6,1 C 5,0 C 88 % 0 lf 1030,2 hPa 0,0 l/m 0 min 0 min 0 W/m 18,0 km/h (3 Bft) 98,21 %
06.12.2017 06:54 6,4 C 6,1 C 5,0 C 88 % 0 lf 1030,2 hPa 0,0 l/m 0 min 0 min 0 W/m 15,8 km/h (3 Bft) 100,00 %
06.12.2017 06:56 6,4 C 6,1 C 5,0 C 88 % 0 lf 1030,2 hPa 0,0 l/m 0 min 0 min 0 W/m 20,3 km/h (4 Bft) 100,00 %
06.12.2017 06:58 6,4 C 6,1 C 5,0 C 88 % 0 lf 1030,2 hPa 0,0 l/m 0 min 0 min 0 W/m 18,0 km/h (3 Bft) 100,00 %
06.12.2017 07:00 6,4 C 6,1 C 5,0 C 88 % 0 lf 1030,2 hPa 0,0 l/m 0 min 0 min 0 W/m 13,5 km/h (3 Bft) 97,87 %
06.12.2017 07:02 6,4 C 6,1 C 5,0 C 88 % 0 lf 1030,2 hPa 0,0 l/m 0 min 0 min 0 W/m 18,0 km/h (3 Bft) 97,87 %
06.12.2017 07:04 6,4 C 6,1 C 5,0 C 88 % 0 lf 1030,2 hPa 0,0 l/m 0 min 0 min 0 W/m 15,8 km/h (3 Bft) 100,00 %
06.12.2017 07:06 6,4 C 6,7 C 5,0 C 88 % 0 lf 1030,2 hPa 0,0 l/m 0 min 0 min 0 W/m 24,8 km/h (4 Bft) 95,92 %
06.12.2017 07:10 6,5 C 6,1 C 5,0 C 88 % 0 lf 1030,2 hPa 0,0 l/m 0 min 0 min 0 W/m 15,8 km/h (3 Bft) 98,78 %
06.12.2017 07:12 6,4 C 6,1 C 5,0 C 88 % 0 lf 1030,2 hPa 0,0 l/m 0 min 0 min 0 W/m 18,0 km/h (3 Bft) 97,87 %
06.12.2017 07:14 6,4 C 6,1 C 5,0 C 88 % 0 lf 1030,3 hPa 0,0 l/m 0 min 0 min 0 W/m 15,8 km/h (3 Bft) 98,21 %
06.12.2017 07:16 6,5 C 6,1 C 5,0 C 88 % 0 lf 1030,2 hPa 0,0 l/m 0 min 0 min 0 W/m 15,8 km/h (3 Bft) 95,92 %
06.12.2017 07:18 6,4 C 6,7 C 5,0 C 88 % 0 lf 1030,2 hPa 0,0 l/m 0 min 0 min 0 W/m 22,5 km/h (4 Bft) 97,44 %
06.12.2017 07:20 6,4 C 6,7 C 5,0 C 88 % 0 lf 1030,2 hPa 0,0 l/m 0 min 0 min 0 W/m 20,3 km/h (4 Bft) 95,92 %
06.12.2017 07:22 6,4 C 6,7 C 5,0 C 88 % 0 lf 1030,1 hPa 0,0 l/m 0 min 0 min 0 W/m 31,5 km/h (5 Bft) 97,87 %
06.12.2017 07:24 6,4 C 6,1 C 5,0 C 88 % 0 lf 1030,2 hPa 0,0 l/m 0 min 0 min 0 W/m 18,0 km/h (3 Bft) 95,74 %
06.12.2017 07:26 6,4 C 6,7 C 5,0 C 88 % 0 lf 1030,2 hPa 0,0 l/m 0 min 0 min 0 W/m 24,8 km/h (4 Bft) 96,00 %
06.12.2017 07:28 6,4 C 6,7 C 5,0 C 88 % 0 lf 1030,2 hPa 0,0 l/m 0 min 0 min 0 W/m 24,8 km/h (4 Bft) 97,96 %
06.12.2017 07:30 6,5 C 6,7 C 5,0 C 88 % 0 lf 1030,2 hPa 0,0 l/m 0 min 0 min 0 W/m 27,0 km/h (4 Bft) 93,62 %
06.12.2017 07:32 6,5 C 6,7 C 5,0 C 88 % 0 lf 1030,2 hPa 0,0 l/m 0 min 0 min 0 W/m 20,3 km/h (4 Bft) 94,74 %
06.12.2017 07:34 6,5 C 6,7 C 5,0 C 88 % 0 lf 1030,2 hPa 0,0 l/m 0 min 0 min 0 W/m 18,0 km/h (3 Bft) 93,62 %
06.12.2017 07:36 6,5 C 6,7 C 5,0 C 88 % 0 lf 1030,1 hPa 0,0 l/m 0 min 0 min 0 W/m 18,0 km/h (3 Bft) 97,87 %
06.12.2017 07:38 6,5 C 6,7 C 5,0 C 88 % 0 lf 1030,2 hPa 0,0 l/m 0 min 0 min 0 W/m 18,0 km/h (3 Bft) 96,43 %
06.12.2017 07:40 6,5 C 6,7 C 5,0 C 88 % 0 lf 1030,1 hPa 0,0 l/m 0 min 0 min 0 W/m 24,8 km/h (4 Bft) 94,74 %
06.12.2017 07:42 6,6 C 6,7 C 5,6 C 88 % 0 lf 1030,2 hPa 0,0 l/m 0 min 0 min 0 W/m 24,8 km/h (4 Bft) 93,88 %
06.12.2017 07:44 6,5 C 6,7 C 5,6 C 88 % 0 lf 1030,1 hPa 0,0 l/m 0 min 0 min 0 W/m 29,3 km/h (5 Bft) 95,74 %
06.12.2017 07:46 6,6 C 6,7 C 5,6 C 88 % 0 lf 1030,2 hPa 0,0 l/m 0 min 0 min 0 W/m 31,5 km/h (5 Bft) 96,23 %
06.12.2017 07:48 6,6 C 6,7 C 5,6 C 87 % 0 lf 1030,1 hPa 0,0 l/m 0 min 0 min 0 W/m 24,8 km/h (4 Bft) 94,74 %
06.12.2017 07:50 6,6 C 6,7 C 5,6 C 88 % 0 lf 1030,1 hPa 0,0 l/m 0 min 0 min 0 W/m 33,8 km/h (5 Bft) 94,92 %
06.12.2017 07:52 6,6 C 6,7 C 5,6 C 88 % 0 lf 1030,2 hPa 0,0 l/m 0 min 0 min 0 W/m 20,3 km/h (4 Bft) 94,29 %
06.12.2017 07:54 6,6 C 6,7 C 5,6 C 87 % 0 lf 1030,2 hPa 0,0 l/m 0 min 0 min 0 W/m 29,3 km/h (5 Bft) 95,65 %
06.12.2017 07:56 6,6 C 6,7 C 5,6 C 87 % 0 lf 1030,1 hPa 0,0 l/m 0 min 0 min 0 W/m 18,0 km/h (3 Bft) 96,00 %
06.12.2017 07:58 6,6 C 6,7 C 5,6 C 87 % 0 lf 1030,1 hPa 0,0 l/m 0 min 0 min 0 W/m 29,3 km/h (5 Bft) 94,00 %
06.12.2017 08:00 6,7 C 6,7 C 5,6 C 87 % 0 lf 1030,1 hPa 0,0 l/m 0 min 0 min 0 W/m 24,8 km/h (4 Bft) 92,00 %
06.12.2017 08:02 6,7 C 6,7 C 5,6 C 87 % 0 lf 1030,1 hPa 0,0 l/m 0 min 0 min 0 W/m 27,0 km/h (4 Bft) 94,29 %
06.12.2017 08:04 6,7 C 6,7 C 5,6 C 87 % 0 lf 1030,0 hPa 0,0 l/m 0 min 0 min 0 W/m 20,3 km/h (4 Bft) 95,74 %
06.12.2017 08:06 6,7 C 6,7 C 5,6 C 87 % 0 lf 1030,0 hPa 0,0 l/m 0 min 0 min 0 W/m 27,0 km/h (4 Bft) 92,73 %
06.12.2017 08:10 6,7 C 6,7 C 5,6 C 87 % 0 lf 1030,1 hPa 0,0 l/m 0 min 0 min 0 W/m 31,5 km/h (5 Bft) 94,85 %
06.12.2017 08:12 6,7 C 6,7 C 5,6 C 87 % 0 lf 1030,1 hPa 0,0 l/m 0 min 0 min 0 W/m 24,8 km/h (4 Bft) 94,74 %
06.12.2017 08:14 6,7 C 6,7 C 5,6 C 87 % 0 lf 1030,1 hPa 0,0 l/m 0 min 0 min 0 W/m 22,5 km/h (4 Bft) 96,00 %
06.12.2017 08:16 6,7 C 6,7 C 5,6 C 87 % 0 lf 1030,1 hPa 0,0 l/m 0 min 0 min 0 W/m 29,3 km/h (5 Bft) 93,88 %
06.12.2017 08:18 6,7 C 6,7 C 5,6 C 87 % 0 lf 1030,1 hPa 0,0 l/m 0 min 0 min 0 W/m 29,3 km/h (5 Bft) 96,00 %
06.12.2017 08:20 6,7 C 6,7 C 5,6 C 87 % 0 lf 1030,1 hPa 0,0 l/m 0 min 0 min 0 W/m 20,3 km/h (4 Bft) 92,11 %
06.12.2017 08:22 6,7 C 6,7 C 5,6 C 87 % 0 lf 1030,0 hPa 0,0 l/m 0 min 0 min 0 W/m 22,5 km/h (4 Bft) 95,74 %
06.12.2017 08:24 6,7 C 6,7 C 5,6 C 87 % 0 lf 1030,0 hPa 0,0 l/m 0 min 0 min 0 W/m 22,5 km/h (4 Bft) 93,62 %
06.12.2017 08:26 6,7 C 6,7 C 5,6 C 87 % 0 lf 1030,0 hPa 0,0 l/m 0 min 0 min 0 W/m 22,5 km/h (4 Bft) 96,00 %
06.12.2017 08:28 6,7 C 6,7 C 5,6 C 87 % 0 lf 1030,1 hPa 0,0 l/m 0 min 0 min 0 W/m 27,0 km/h (4 Bft) 91,84 %
06.12.2017 08:30 6,7 C 6,7 C 5,6 C 87 % 0 lf 1030,1 hPa 0,0 l/m 0 min 0 min 0 W/m 20,3 km/h (4 Bft) 96,00 %
06.12.2017 08:32 6,7 C 6,7 C 5,6 C 87 % 0 lf 1030,1 hPa 0,0 l/m 0 min 0 min 0 W/m 20,3 km/h (4 Bft) 97,37 %
06.12.2017 08:34 6,7 C 6,7 C 5,6 C 87 % 0 lf 1030,1 hPa 0,0 l/m 0 min 0 min 0 W/m 24,8 km/h (4 Bft) 96,00 %
06.12.2017 08:36 6,7 C 6,7 C 5,6 C 87 % 0 lf 1030,2 hPa 0,0 l/m 0 min 0 min 0 W/m 20,3 km/h (4 Bft) 91,49 %
06.12.2017 08:38 6,8 C 6,7 C 5,6 C 87 % 0 lf 1030,1 hPa 0,0 l/m 0 min 0 min 4 W/m 15,8 km/h (3 Bft) 94,00 %
06.12.2017 08:40 6,8 C 6,7 C 5,6 C 87 % 0 lf 1030,1 hPa 0,0 l/m 0 min 0 min 5 W/m 22,5 km/h (4 Bft) 93,88 %
06.12.2017 08:42 6,8 C 6,7 C 5,6 C 87 % 0 lf 1030,1 hPa 0,0 l/m 0 min 0 min 5 W/m 27,0 km/h (4 Bft) 94,74 %
06.12.2017 08:44 6,8 C 6,7 C 5,6 C 87 % 0 lf 1030,1 hPa 0,0 l/m 0 min 0 min 5 W/m 27,0 km/h (4 Bft) 98,00 %
06.12.2017 08:46 6,8 C 6,7 C 5,6 C 87 % 0 lf 1030,1 hPa 0,0 l/m 0 min 0 min 5 W/m 15,8 km/h (3 Bft) 98,00 %
06.12.2017 08:48 6,8 C 6,7 C 5,6 C 87 % 0 lf 1030,1 hPa 0,0 l/m 0 min 0 min 5 W/m 15,8 km/h (3 Bft) 96,00 %
06.12.2017 08:50 6,8 C 6,7 C 5,6 C 87 % 0 lf 1030,1 hPa 0,0 l/m 0 min 0 min 6 W/m 18,0 km/h (3 Bft) 97,96 %
06.12.2017 08:52 6,8 C 6,7 C 5,6 C 87 % 0 lf 1030,1 hPa 0,0 l/m 0 min 0 min 7 W/m 20,3 km/h (4 Bft) 94,44 %
06.12.2017 08:54 6,8 C 6,7 C 5,6 C 87 % 0 lf 1030,1 hPa 0,0 l/m 0 min 0 min 7 W/m 15,8 km/h (3 Bft) 97,83 %
06.12.2017 08:56 6,8 C 6,7 C 5,6 C 87 % 0 lf 1030,1 hPa 0,0 l/m 0 min 0 min 8 W/m 13,5 km/h (3 Bft) 96,30 %
06.12.2017 08:58 6,8 C 6,7 C 5,6 C 87 % 0 lf 1030,1 hPa 0,0 l/m 0 min 0 min 9 W/m 20,3 km/h (4 Bft) 98,00 %
06.12.2017 09:00 6,8 C 6,7 C 5,6 C 87 % 0 lf 1030,1 hPa 0,0 l/m 0 min 0 min 9 W/m 11,3 km/h (2 Bft) 94,59 %
06.12.2017 09:02 6,8 C 6,7 C 5,6 C 87 % 0 lf 1030,1 hPa 0,0 l/m 0 min 0 min 9 W/m 13,5 km/h (3 Bft) 93,62 %
06.12.2017 09:04 6,8 C 6,7 C 5,6 C 87 % 0 lf 1030,2 hPa 0,0 l/m 0 min 0 min 11 W/m 20,3 km/h (4 Bft) 98,11 %
06.12.2017 09:06 6,8 C 6,7 C 5,6 C 87 % 0 lf 1030,2 hPa 0,0 l/m 0 min 0 min 10 W/m 20,3 km/h (4 Bft) 94,00 %
06.12.2017 09:10 6,8 C 6,7 C 5,6 C 87 % 0 lf 1030,1 hPa 0,0 l/m 0 min 0 min 11 W/m 31,5 km/h (5 Bft) 94,05 %
06.12.2017 09:12 6,8 C 6,7 C 5,6 C 87 % 0 lf 1030,2 hPa 0,0 l/m 0 min 0 min 12 W/m 18,0 km/h (3 Bft) 93,62 %
06.12.2017 09:14 6,8 C 6,7 C 5,6 C 87 % 0 lf 1030,2 hPa 0,0 l/m 0 min 0 min 12 W/m 13,5 km/h (3 Bft) 95,74 %
06.12.2017 09:16 6,8 C 6,7 C 5,6 C 87 % 0 lf 1030,2 hPa 0,0 l/m 0 min 0 min 12 W/m 15,8 km/h (3 Bft) 94,55 %
06.12.2017 09:18 6,8 C 6,7 C 5,6 C 86 % 0 lf 1030,2 hPa 0,0 l/m 0 min 0 min 12 W/m 13,5 km/h (3 Bft) 97,37 %
06.12.2017 09:20 6,8 C 6,7 C 5,6 C 86 % 0 lf 1030,2 hPa 0,0 l/m 0 min 0 min 14 W/m 18,0 km/h (3 Bft) 94,00 %
06.12.2017 09:22 6,8 C 6,7 C 5,6 C 86 % 0 lf 1030,2 hPa 0,0 l/m 0 min 0 min 14 W/m 18,0 km/h (3 Bft) 95,74 %
06.12.2017 09:24 6,9 C 6,7 C 5,6 C 86 % 0 lf 1030,2 hPa 0,0 l/m 0 min 0 min 14 W/m 22,5 km/h (4 Bft) 95,74 %
06.12.2017 09:26 6,9 C 7,2 C 5,6 C 86 % 0 lf 1030,2 hPa 0,0 l/m 0 min 0 min 14 W/m 18,0 km/h (3 Bft) 97,83 %
06.12.2017 09:28 6,9 C 7,2 C 5,6 C 86 % 0 lf 1030,2 hPa 0,0 l/m 0 min 0 min 14 W/m 15,8 km/h (3 Bft) 95,74 %
06.12.2017 09:30 6,9 C 7,2 C 5,6 C 86 % 0 lf 1030,1 hPa 0,0 l/m 0 min 0 min 14 W/m 18,0 km/h (3 Bft) 97,87 %
06.12.2017 09:32 6,9 C 7,2 C 5,6 C 86 % 0 lf 1030,2 hPa 0,0 l/m 0 min 0 min 14 W/m 15,8 km/h (3 Bft) 97,87 %
06.12.2017 09:34 6,9 C 7,2 C 5,6 C 86 % 0 lf 1030,2 hPa 0,0 l/m 0 min 0 min 15 W/m 18,0 km/h (3 Bft) 97,87 %
06.12.2017 09:36 6,9 C 7,2 C 5,6 C 86 % 0 lf 1030,1 hPa 0,0 l/m 0 min 0 min 18 W/m 15,8 km/h (3 Bft) 97,87 %
06.12.2017 09:38 6,9 C 7,2 C 5,6 C 86 % 0 lf 1030,1 hPa 0,0 l/m 0 min 0 min 22 W/m 13,5 km/h (3 Bft) 95,65 %
06.12.2017 09:40 6,9 C 7,2 C 5,6 C 86 % 0 lf 1030,2 hPa 0,0 l/m 0 min 0 min 21 W/m 20,3 km/h (4 Bft) 97,87 %
06.12.2017 09:42 6,9 C 7,2 C 5,6 C 86 % 0 lf 1030,2 hPa 0,0 l/m 0 min 0 min 21 W/m 11,3 km/h (2 Bft) 100,00 %
06.12.2017 09:44 6,9 C 7,2 C 5,6 C 86 % 0 lf 1030,1 hPa 0,0 l/m 0 min 0 min 23 W/m 15,8 km/h (3 Bft) 100,00 %
06.12.2017 09:46 6,9 C 7,2 C 5,6 C 86 % 0 lf 1030,1 hPa 0,0 l/m 0 min 0 min 23 W/m 13,5 km/h (3 Bft) 97,87 %
06.12.2017 09:48 6,9 C 7,2 C 5,6 C 86 % 0 lf 1030,2 hPa 0,0 l/m 0 min 0 min 23 W/m 24,8 km/h (4 Bft) 100,00 %
06.12.2017 09:50 6,9 C 7,2 C 6,1 C 86 % 0 lf 1030,2 hPa 0,0 l/m 0 min 0 min 25 W/m 22,5 km/h (4 Bft) 100,00 %
06.12.2017 09:52 7,0 C 7,2 C 6,1 C 86 % 0 lf 1030,2 hPa 0,0 l/m 0 min 0 min 25 W/m 20,3 km/h (4 Bft) 100,00 %
06.12.2017 09:54 7,0 C 7,2 C 6,1 C 86 % 0 lf 1030,2 hPa 0,0 l/m 0 min 0 min 26 W/m 15,8 km/h (3 Bft) 100,00 %
06.12.2017 09:56 7,0 C 7,2 C 6,1 C 86 % 0 lf 1030,1 hPa 0,0 l/m 0 min 0 min 26 W/m 13,5 km/h (3 Bft) 97,37 %
06.12.2017 09:58 7,0 C 7,2 C 6,1 C 86 % 0 lf 1030,2 hPa 0,0 l/m 0 min 0 min 26 W/m 20,3 km/h (4 Bft) 98,00 %
06.12.2017 10:00 7,0 C 7,2 C 6,1 C 86 % 0 lf 1030,2 hPa 0,0 l/m 0 min 0 min 26 W/m 13,5 km/h (3 Bft) 100,00 %
06.12.2017 10:02 7,0 C 7,2 C 6,1 C 86 % 0 lf 1030,2 hPa 0,0 l/m 0 min 0 min 27 W/m 18,0 km/h (3 Bft) 97,96 %
06.12.2017 10:04 7,1 C 7,2 C 6,1 C 86 % 0 lf 1030,2 hPa 0,0 l/m 0 min 0 min 26 W/m 20,3 km/h (4 Bft) 97,14 %
06.12.2017 10:06 7,1 C 7,2 C 6,1 C 86 % 0 lf 1030,2 hPa 0,0 l/m 0 min 0 min 28 W/m 15,8 km/h (3 Bft) 100,00 %
06.12.2017 10:10 7,1 C 7,2 C 6,1 C 86 % 0 lf 1030,2 hPa 0,0 l/m 0 min 0 min 27 W/m 22,5 km/h (4 Bft) 98,11 %
06.12.2017 10:12 7,1 C 7,2 C 6,1 C 86 % 0 lf 1030,2 hPa 0,0 l/m 0 min 0 min 28 W/m 18,0 km/h (3 Bft) 100,00 %
06.12.2017 10:14 7,1 C 7,2 C 6,1 C 86 % 0 lf 1030,2 hPa 0,0 l/m 0 min 0 min 32 W/m 13,5 km/h (3 Bft) 100,00 %
06.12.2017 10:16 7,1 C 7,2 C 6,1 C 86 % 0 lf 1030,2 hPa 0,0 l/m 0 min 0 min 38 W/m 13,5 km/h (3 Bft) 100,00 %
06.12.2017 10:18 7,2 C 7,2 C 6,1 C 86 % 0 lf 1030,2 hPa 0,0 l/m 0 min 0 min 38 W/m 18,0 km/h (3 Bft) 100,00 %
06.12.2017 10:20 7,2 C 7,2 C 6,1 C 86 % 0 lf 1030,2 hPa 0,0 l/m 0 min 0 min 37 W/m 11,3 km/h (2 Bft) 100,00 %
06.12.2017 10:22 7,2 C 7,2 C 6,1 C 86 % 0 lf 1030,3 hPa 0,0 l/m 0 min 0 min 38 W/m 15,8 km/h (3 Bft) 100,00 %
06.12.2017 10:24 7,2 C 7,8 C 6,1 C 86 % 0 lf 1030,2 hPa 0,0 l/m 0 min 0 min 41 W/m 18,0 km/h (3 Bft) 97,87 %
06.12.2017 10:26 7,2 C 7,8 C 6,7 C 86 % 0 lf 1030,2 hPa 0,0 l/m 0 min 0 min 42 W/m 13,5 km/h (3 Bft) 100,00 %
06.12.2017 10:28 7,2 C 7,8 C 6,7 C 86 % 0 lf 1030,2 hPa 0,0 l/m 0 min 0 min 42 W/m 15,8 km/h (3 Bft) 98,00 %
06.12.2017 10:30 7,2 C 7,8 C 6,7 C 86 % 0 lf 1030,2 hPa 0,0 l/m 0 min 0 min 42 W/m 18,0 km/h (3 Bft) 100,00 %
06.12.2017 10:32 7,2 C 7,8 C 6,7 C 86 % 0 lf 1030,2 hPa 0,0 l/m 0 min 0 min 40 W/m 18,0 km/h (3 Bft) 100,00 %
06.12.2017 10:34 7,2 C 7,8 C 6,7 C 86 % 0 lf 1030,2 hPa 0,0 l/m 0 min 0 min 40 W/m 18,0 km/h (3 Bft) 98,00 %
06.12.2017 10:36 7,3 C 7,8 C 6,7 C 86 % 0 lf 1030,2 hPa 0,0 l/m 0 min 0 min 40 W/m 13,5 km/h (3 Bft) 94,00 %
06.12.2017 10:38 7,3 C 7,8 C 6,7 C 86 % 0 lf 1030,2 hPa 0,0 l/m 0 min 0 min 43 W/m 22,5 km/h (4 Bft) 100,00 %
06.12.2017 10:40 7,3 C 7,8 C 6,7 C 86 % 0 lf 1030,1 hPa 0,0 l/m 0 min 0 min 48 W/m 11,3 km/h (2 Bft) 94,74 %
06.12.2017 10:42 7,3 C 7,8 C 6,7 C 86 % 0 lf 1030,2 hPa 0,0 l/m 0 min 0 min 49 W/m 18,0 km/h (3 Bft) 94,00 %
06.12.2017 10:44 7,3 C 7,8 C 6,7 C 86 % 0 lf 1030,2 hPa 0,0 l/m 0 min 0 min 47 W/m 22,5 km/h (4 Bft) 97,87 %
06.12.2017 10:46 7,3 C 7,8 C 6,7 C 86 % 0 lf 1030,2 hPa 0,0 l/m 0 min 0 min 48 W/m 9,0 km/h (2 Bft) 97,87 %
06.12.2017 10:48 7,3 C 7,8 C 6,7 C 86 % 0 lf 1030,2 hPa 0,0 l/m 0 min 0 min 51 W/m 15,8 km/h (3 Bft) 95,92 %
06.12.2017 10:50 7,4 C 7,8 C 6,7 C 86 % 0 lf 1030,2 hPa 0,0 l/m 0 min 0 min 48 W/m 15,8 km/h (3 Bft) 100,00 %
06.12.2017 10:52 7,4 C 7,8 C 6,7 C 86 % 0 lf 1030,2 hPa 0,0 l/m 0 min 0 min 47 W/m 18,0 km/h (3 Bft) 95,74 %
06.12.2017 10:54 7,4 C 7,8 C 6,7 C 86 % 0 lf 1030,2 hPa 0,0 l/m 0 min 0 min 49 W/m 18,0 km/h (3 Bft) 97,87 %
06.12.2017 10:56 7,4 C 7,8 C 6,7 C 86 % 0 lf 1030,2 hPa 0,0 l/m 0 min 0 min 49 W/m 15,8 km/h (3 Bft) 97,37 %
06.12.2017 10:58 7,4 C 7,8 C 6,7 C 86 % 0 lf 1030,2 hPa 0,0 l/m 0 min 0 min 49 W/m 18,0 km/h (3 Bft) 95,74 %
06.12.2017 11:00 7,4 C 7,8 C 6,7 C 86 % 0 lf 1030,2 hPa 0,0 l/m 0 min 0 min 49 W/m 24,8 km/h (4 Bft) 92,73 %
06.12.2017 11:02 7,4 C 7,8 C 6,7 C 86 % 0 lf 1030,3 hPa 0,0 l/m 0 min 0 min 49 W/m 18,0 km/h (3 Bft) 98,00 %
06.12.2017 11:04 7,4 C 7,8 C 6,7 C 86 % 0 lf 1030,3 hPa 0,0 l/m 0 min 0 min 54 W/m 24,8 km/h (4 Bft) 92,11 %
06.12.2017 11:06 7,4 C 7,8 C 6,7 C 86 % 0 lf 1030,2 hPa 0,0 l/m 0 min 0 min 60 W/m 20,3 km/h (4 Bft) 95,74 %
06.12.2017 11:10 7,4 C 7,8 C 6,7 C 86 % 0 lf 1030,2 hPa 0,0 l/m 0 min 0 min 58 W/m 18,0 km/h (3 Bft) 96,08 %
06.12.2017 11:12 7,5 C 7,8 C 6,7 C 86 % 0 lf 1030,1 hPa 0,0 l/m 0 min 0 min 56 W/m 24,8 km/h (4 Bft) 94,87 %
06.12.2017 11:14 7,5 C 7,8 C 6,7 C 86 % 0 lf 1030,1 hPa 0,0 l/m 0 min 0 min 59 W/m 15,8 km/h (3 Bft) 93,88 %
06.12.2017 11:16 7,5 C 7,8 C 6,7 C 86 % 0 lf 1030,1 hPa 0,0 l/m 0 min 0 min 58 W/m 22,5 km/h (4 Bft) 90,00 %
06.12.2017 11:18 7,5 C 7,8 C 6,7 C 86 % 0 lf 1030,1 hPa 0,0 l/m 0 min 0 min 58 W/m 24,8 km/h (4 Bft) 92,00 %
06.12.2017 11:20 7,5 C 7,8 C 6,7 C 86 % 0 lf 1030,1 hPa 0,0 l/m 0 min 0 min 60 W/m 20,3 km/h (4 Bft) 94,00 %
06.12.2017 11:22 7,5 C 7,8 C 6,7 C 86 % 0 lf 1030,1 hPa 0,0 l/m 0 min 0 min 56 W/m 18,0 km/h (3 Bft) 91,43 %
06.12.2017 11:24 7,6 C 7,8 C 6,7 C 86 % 0 lf 1030,1 hPa 0,0 l/m 0 min 0 min 57 W/m 20,3 km/h (4 Bft) 91,30 %
06.12.2017 11:26 7,6 C 7,8 C 6,7 C 86 % 0 lf 1030,0 hPa 0,0 l/m 0 min 0 min 59 W/m 20,3 km/h (4 Bft) 92,00 %
06.12.2017 11:28 7,6 C 7,8 C 6,7 C 86 % 0 lf 1030,0 hPa 0,0 l/m 0 min 0 min 62 W/m 18,0 km/h (3 Bft) 92,00 %
06.12.2017 11:30 7,6 C 7,8 C 7,2 C 86 % 0 lf 1030,0 hPa 0,0 l/m 0 min 0 min 62 W/m 13,5 km/h (3 Bft) 94,00 %
06.12.2017 11:32 7,6 C 7,8 C 7,2 C 86 % 0 lf 1030,0 hPa 0,0 l/m 0 min 0 min 62 W/m 22,5 km/h (4 Bft) 89,47 %
06.12.2017 11:34 7,6 C 7,8 C 7,2 C 86 % 0 lf 1030,0 hPa 0,0 l/m 0 min 0 min 64 W/m 20,3 km/h (4 Bft) 94,00 %
06.12.2017 11:36 7,6 C 7,8 C 7,2 C 86 % 0 lf 1030,0 hPa 0,0 l/m 0 min 0 min 69 W/m 20,3 km/h (4 Bft) 91,84 %
06.12.2017 11:38 7,6 C 8,3 C 7,2 C 86 % 0 lf 1029,9 hPa 0,0 l/m 0 min 0 min 77 W/m 18,0 km/h (3 Bft) 92,00 %
06.12.2017 11:40 7,6 C 8,3 C 7,2 C 86 % 0 lf 1029,9 hPa 0,0 l/m 0 min 0 min 74 W/m 22,5 km/h (4 Bft) 94,74 %
06.12.2017 11:42 7,7 C 8,3 C 7,2 C 86 % 0 lf 1030,0 hPa 0,0 l/m 0 min 0 min 74 W/m 15,8 km/h (3 Bft) 96,00 %
06.12.2017 11:44 7,7 C 8,3 C 7,2 C 86 % 0 lf 1029,9 hPa 0,0 l/m 0 min 0 min 74 W/m 15,8 km/h (3 Bft) 94,00 %
06.12.2017 11:46 7,7 C 8,3 C 7,2 C 86 % 0 lf 1029,8 hPa 0,0 l/m 0 min 0 min 76 W/m 18,0 km/h (3 Bft) 93,88 %
06.12.2017 11:48 7,7 C 8,3 C 7,2 C 86 % 0 lf 1029,8 hPa 0,0 l/m 0 min 0 min 76 W/m 11,3 km/h (2 Bft) 94,44 %
06.12.2017 11:50 7,7 C 8,3 C 7,2 C 86 % 0 lf 1029,7 hPa 0,0 l/m 0 min 0 min 77 W/m 22,5 km/h (4 Bft) 94,23 %
06.12.2017 11:52 7,7 C 8,3 C 7,2 C 86 % 0 lf 1029,7 hPa 0,0 l/m 0 min 0 min 87 W/m 18,0 km/h (3 Bft) 95,12 %
06.12.2017 11:54 7,7 C 8,3 C 7,2 C 86 % 0 lf 1029,6 hPa 0,0 l/m 0 min 0 min 91 W/m 20,3 km/h (4 Bft) 93,62 %
06.12.2017 11:56 7,8 C 8,3 C 7,2 C 86 % 0 lf 1029,6 hPa 0,0 l/m 0 min 0 min 88 W/m 20,3 km/h (4 Bft) 96,43 %
06.12.2017 11:58 7,8 C 8,3 C 7,2 C 86 % 0 lf 1029,6 hPa 0,0 l/m 0 min 0 min 86 W/m 22,5 km/h (4 Bft) 95,65 %
06.12.2017 12:00 7,8 C 8,3 C 7,2 C 86 % 0 lf 1029,6 hPa 0,0 l/m 0 min 0 min 84 W/m 18,0 km/h (3 Bft) 93,62 %
06.12.2017 12:02 7,8 C 8,3 C 7,2 C 86 % 0 lf 1029,6 hPa 0,0 l/m 0 min 0 min 85 W/m 20,3 km/h (4 Bft) 95,74 %
06.12.2017 12:04 7,8 C 8,3 C 7,8 C 86 % 0 lf 1029,5 hPa 0,0 l/m 0 min 0 min 88 W/m 22,5 km/h (4 Bft) 95,74 %
06.12.2017 12:06 7,9 C 8,3 C 7,8 C 86 % 0 lf 1029,5 hPa 0,0 l/m 0 min 0 min 90 W/m 20,3 km/h (4 Bft) 95,74 %
06.12.2017 12:10 7,9 C 8,3 C 7,8 C 86 % 0 lf 1029,5 hPa 0,0 l/m 0 min 0 min 93 W/m 22,5 km/h (4 Bft) 97,92 %
06.12.2017 12:12 7,9 C 8,9 C 7,8 C 86 % 0 lf 1029,5 hPa 0,0 l/m 0 min 0 min 95 W/m 15,8 km/h (3 Bft) 97,87 %
06.12.2017 12:14 7,9 C 8,9 C 7,8 C 86 % 0 lf 1029,4 hPa 0,0 l/m 0 min 0 min 92 W/m 22,5 km/h (4 Bft) 95,74 %
06.12.2017 12:16 7,9 C 8,9 C 7,8 C 86 % 0 lf 1029,4 hPa 0,0 l/m 0 min 0 min 91 W/m 24,8 km/h (4 Bft) 100,00 %
06.12.2017 12:18 7,9 C 8,3 C 7,8 C 86 % 0 lf 1029,4 hPa 0,0 l/m 0 min 0 min 90 W/m 20,3 km/h (4 Bft) 93,62 %
06.12.2017 12:20 8,0 C 8,9 C 7,8 C 86 % 0 lf 1029,4 hPa 0,0 l/m 0 min 0 min 89 W/m 20,3 km/h (4 Bft) 97,83 %
06.12.2017 12:22 8,0 C 8,9 C 7,8 C 86 % 0 lf 1029,5 hPa 0,0 l/m 0 min 0 min 87 W/m 20,3 km/h (4 Bft) 91,49 %
06.12.2017 12:24 8,0 C 8,3 C 7,8 C 86 % 0 lf 1029,5 hPa 0,0 l/m 0 min 0 min 85 W/m 24,8 km/h (4 Bft) 100,00 %
06.12.2017 12:26 8,1 C 8,9 C 7,8 C 86 % 0 lf 1029,4 hPa 0,0 l/m 0 min 0 min 89 W/m 22,5 km/h (4 Bft) 100,00 %
06.12.2017 12:28 8,1 C 8,3 C 7,8 C 85 % 0 lf 1029,4 hPa 0,0 l/m 0 min 0 min 88 W/m 20,3 km/h (4 Bft) 100,00 %
06.12.2017 12:30 8,1 C 8,9 C 7,8 C 85 % 0 lf 1029,3 hPa 0,0 l/m 0 min 0 min 89 W/m 20,3 km/h (4 Bft) 100,00 %
06.12.2017 12:32 8,1 C 8,9 C 7,8 C 85 % 0 lf 1029,3 hPa 0,0 l/m 0 min 0 min 89 W/m 20,3 km/h (4 Bft) 100,00 %
06.12.2017 12:34 8,1 C 8,9 C 7,8 C 85 % 0 lf 1029,3 hPa 0,0 l/m 0 min 0 min 91 W/m 18,0 km/h (3 Bft) 95,74 %
06.12.2017 12:36 8,1 C 8,9 C 7,8 C 85 % 0 lf 1029,3 hPa 0,0 l/m 0 min 0 min 93 W/m 24,8 km/h (4 Bft) 100,00 %
06.12.2017 12:38 8,2 C 8,9 C 7,8 C 85 % 0 lf 1029,3 hPa 0,0 l/m 0 min 0 min 92 W/m 22,5 km/h (4 Bft) 100,00 %
06.12.2017 12:40 8,2 C 8,9 C 7,8 C 85 % 0 lf 1029,3 hPa 0,0 l/m 0 min 0 min 91 W/m 20,3 km/h (4 Bft) 100,00 %
06.12.2017 12:42 8,2 C 8,9 C 7,8 C 85 % 0 lf 1029,3 hPa 0,0 l/m 0 min 0 min 91 W/m 22,5 km/h (4 Bft) 100,00 %
06.12.2017 12:44 8,2 C 8,9 C 7,8 C 85 % 0 lf 1029,3 hPa 0,0 l/m 0 min 0 min 94 W/m 15,8 km/h (3 Bft) 97,83 %
06.12.2017 12:46 8,2 C 8,9 C 7,8 C 85 % 0 lf 1029,3 hPa 0,0 l/m 0 min 0 min 94 W/m 22,5 km/h (4 Bft) 95,74 %
06.12.2017 12:48 8,2 C 8,9 C 7,8 C 85 % 0 lf 1029,3 hPa 0,0 l/m 0 min 0 min 92 W/m 24,8 km/h (4 Bft) 100,00 %
06.12.2017 12:50 8,3 C 8,9 C 7,8 C 85 % 0 lf 1029,3 hPa 0,0 l/m 0 min 0 min 93 W/m 27,0 km/h (4 Bft) 97,87 %
06.12.2017 12:52 8,3 C 8,9 C 7,8 C 85 % 0 lf 1029,3 hPa 0,0 l/m 0 min 0 min 91 W/m 24,8 km/h (4 Bft) 100,00 %
06.12.2017 12:54 8,3 C 8,9 C 7,8 C 85 % 0 lf 1029,3 hPa 0,0 l/m 0 min 0 min 89 W/m 27,0 km/h (4 Bft) 100,00 %
06.12.2017 12:56 8,3 C 8,9 C 7,8 C 85 % 0 lf 1029,3 hPa 0,0 l/m 0 min 0 min 90 W/m 22,5 km/h (4 Bft) 97,83 %
06.12.2017 12:58 8,3 C 8,9 C 7,8 C 85 % 0 lf 1029,3 hPa 0,0 l/m 0 min 0 min 88 W/m 27,0 km/h (4 Bft) 100,00 %
06.12.2017 13:00 8,3 C 8,9 C 7,8 C 85 % 0 lf 1029,3 hPa 0,0 l/m 0 min 0 min 90 W/m 24,8 km/h (4 Bft) 100,00 %
06.12.2017 13:02 8,3 C 8,9 C 7,8 C 85 % 0 lf 1029,3 hPa 0,0 l/m 0 min 0 min 90 W/m 24,8 km/h (4 Bft) 100,00 %
06.12.2017 13:04 8,3 C 8,9 C 7,8 C 85 % 0 lf 1029,2 hPa 0,0 l/m 0 min 0 min 88 W/m 20,3 km/h (4 Bft) 100,00 %
06.12.2017 13:06 8,4 C 8,9 C 7,8 C 85 % 0 lf 1029,2 hPa 0,0 l/m 0 min 0 min 86 W/m 20,3 km/h (4 Bft) 97,87 %
06.12.2017 13:10 8,4 C 8,9 C 7,8 C 85 % 0 lf 1029,3 hPa 0,0 l/m 0 min 0 min 84 W/m 27,0 km/h (4 Bft) 98,81 %
06.12.2017 13:12 8,4 C 8,9 C 7,8 C 85 % 0 lf 1029,2 hPa 0,0 l/m 0 min 0 min 83 W/m 24,8 km/h (4 Bft) 97,87 %
06.12.2017 13:14 8,4 C 8,9 C 7,8 C 85 % 0 lf 1029,2 hPa 0,0 l/m 0 min 0 min 81 W/m 22,5 km/h (4 Bft) 97,87 %
06.12.2017 13:16 8,4 C 8,9 C 7,8 C 85 % 0 lf 1029,1 hPa 0,0 l/m 0 min 0 min 81 W/m 20,3 km/h (4 Bft) 97,87 %
06.12.2017 13:18 8,4 C 8,9 C 7,8 C 85 % 0 lf 1029,2 hPa 0,0 l/m 0 min 0 min 82 W/m 24,8 km/h (4 Bft) 97,87 %
06.12.2017 13:20 8,4 C 8,9 C 7,8 C 85 % 0 lf 1029,2 hPa 0,0 l/m 0 min 0 min 84 W/m 22,5 km/h (4 Bft) 96,55 %
06.12.2017 13:22 8,4 C 8,9 C 7,8 C 85 % 0 lf 1029,1 hPa 0,0 l/m 0 min 0 min 85 W/m 15,8 km/h (3 Bft) 94,29 %
06.12.2017 13:24 8,4 C 8,9 C 8,3 C 85 % 0 lf 1029,2 hPa 0,0 l/m 0 min 0 min 86 W/m 15,8 km/h (3 Bft) 97,87 %
06.12.2017 13:26 8,4 C 8,9 C 7,8 C 85 % 0 lf 1029,1 hPa 0,0 l/m 0 min 0 min 84 W/m 20,3 km/h (4 Bft) 91,49 %
06.12.2017 13:28 8,5 C 8,9 C 8,3 C 85 % 0 lf 1029,1 hPa 0,0 l/m 0 min 0 min 84 W/m 18,0 km/h (3 Bft) 97,87 %
06.12.2017 13:30 8,5 C 8,9 C 8,3 C 85 % 0 lf 1029,0 hPa 0,0 l/m 0 min 0 min 84 W/m 18,0 km/h (3 Bft) 97,87 %
06.12.2017 13:32 8,5 C 8,9 C 7,8 C 85 % 0 lf 1029,0 hPa 0,0 l/m 0 min 0 min 82 W/m 24,8 km/h (4 Bft) 95,74 %
06.12.2017 13:34 8,5 C 8,9 C 7,8 C 85 % 0 lf 1028,9 hPa 0,0 l/m 0 min 0 min 83 W/m 20,3 km/h (4 Bft) 93,48 %
06.12.2017 13:36 8,5 C 8,9 C 7,8 C 85 % 0 lf 1028,9 hPa 0,0 l/m 0 min 0 min 84 W/m 29,3 km/h (5 Bft) 93,62 %
06.12.2017 13:38 8,5 C 8,9 C 7,8 C 85 % 0 lf 1028,9 hPa 0,0 l/m 0 min 0 min 84 W/m 20,3 km/h (4 Bft) 95,74 %
06.12.2017 13:40 8,5 C 8,9 C 7,8 C 85 % 0 lf 1028,8 hPa 0,0 l/m 0 min 0 min 84 W/m 27,0 km/h (4 Bft) 93,62 %
06.12.2017 13:42 8,5 C 8,9 C 7,8 C 85 % 0 lf 1028,8 hPa 0,0 l/m 0 min 0 min 86 W/m 24,8 km/h (4 Bft) 97,87 %
06.12.2017 13:44 8,5 C 8,9 C 7,8 C 85 % 0 lf 1028,8 hPa 0,0 l/m 0 min 0 min 87 W/m 27,0 km/h (4 Bft) 93,62 %
06.12.2017 13:46 8,5 C 8,9 C 7,8 C 85 % 0 lf 1028,8 hPa 0,0 l/m 0 min 0 min 91 W/m 29,3 km/h (5 Bft) 97,83 %
06.12.2017 13:48 8,5 C 8,9 C 7,8 C 85 % 0 lf 1028,8 hPa 0,0 l/m 0 min 0 min 91 W/m 20,3 km/h (4 Bft) 97,87 %
06.12.2017 13:50 8,5 C 8,9 C 7,8 C 85 % 0 lf 1028,8 hPa 0,0 l/m 0 min 0 min 91 W/m 20,3 km/h (4 Bft) 96,61 %
06.12.2017 13:52 8,5 C 8,9 C 7,8 C 85 % 0 lf 1028,8 hPa 0,0 l/m 0 min 0 min 90 W/m 31,5 km/h (5 Bft) 97,14 %
06.12.2017 13:54 8,5 C 8,9 C 7,8 C 85 % 0 lf 1028,8 hPa 0,0 l/m 0 min 0 min 86 W/m 27,0 km/h (4 Bft) 97,87 %
06.12.2017 13:56 8,5 C 8,9 C 7,8 C 85 % 0 lf 1028,7 hPa 0,0 l/m 0 min 0 min 84 W/m 27,0 km/h (4 Bft) 97,87 %
06.12.2017 13:58 8,5 C 8,9 C 7,8 C 85 % 0 lf 1028,8 hPa 0,0 l/m 0 min 0 min 81 W/m 20,3 km/h (4 Bft) 97,83 %
06.12.2017 14:00 8,5 C 8,9 C 7,8 C 85 % 0 lf 1028,8 hPa 0,0 l/m 0 min 0 min 77 W/m 29,3 km/h (5 Bft) 95,74 %
06.12.2017 14:02 8,5 C 8,9 C 7,8 C 85 % 0 lf 1028,8 hPa 0,0 l/m 0 min 0 min 74 W/m 24,8 km/h (4 Bft) 97,87 %
06.12.2017 14:04 8,5 C 8,9 C 7,8 C 85 % 0 lf 1028,7 hPa 0,0 l/m 0 min 0 min 75 W/m 18,0 km/h (3 Bft) 97,87 %
06.12.2017 14:06 8,5 C 8,9 C 7,8 C 85 % 0 lf 1028,7 hPa 0,0 l/m 0 min 0 min 76 W/m 27,0 km/h (4 Bft) 95,74 %
06.12.2017 14:10 8,4 C 8,9 C 7,8 C 85 % 0 lf 1028,6 hPa 0,0 l/m 0 min 0 min 76 W/m 29,3 km/h (5 Bft) 94,79 %
06.12.2017 14:12 8,4 C 8,9 C 7,8 C 85 % 0 lf 1028,7 hPa 0,0 l/m 0 min 0 min 74 W/m 20,3 km/h (4 Bft) 93,62 %
06.12.2017 14:14 8,4 C 8,9 C 7,8 C 85 % 0 lf 1028,6 hPa 0,0 l/m 0 min 0 min 73 W/m 24,8 km/h (4 Bft) 95,74 %
06.12.2017 14:16 8,4 C 8,9 C 7,8 C 85 % 0 lf 1028,6 hPa 0,0 l/m 0 min 0 min 72 W/m 24,8 km/h (4 Bft) 93,62 %
06.12.2017 14:18 8,4 C 8,9 C 7,8 C 85 % 0 lf 1028,6 hPa 0,0 l/m 0 min 0 min 71 W/m 20,3 km/h (4 Bft) 95,74 %
06.12.2017 14:20 8,4 C 8,9 C 7,8 C 85 % 0 lf 1028,5 hPa 0,0 l/m 0 min 0 min 70 W/m 22,5 km/h (4 Bft) 91,30 %
06.12.2017 14:22 8,4 C 8,9 C 7,8 C 85 % 0 lf 1028,5 hPa 0,0 l/m 0 min 0 min 67 W/m 20,3 km/h (4 Bft) 95,74 %
06.12.2017 14:24 8,4 C 8,9 C 7,8 C 85 % 0 lf 1028,5 hPa 0,0 l/m 0 min 0 min 63 W/m 15,8 km/h (3 Bft) 97,87 %
06.12.2017 14:26 8,4 C 8,9 C 7,8 C 85 % 0 lf 1028,5 hPa 0,0 l/m 0 min 0 min 61 W/m 24,8 km/h (4 Bft) 95,74 %
06.12.2017 14:28 8,4 C 8,9 C 7,8 C 85 % 0 lf 1028,4 hPa 0,0 l/m 0 min 0 min 59 W/m 20,3 km/h (4 Bft) 97,87 %
06.12.2017 14:30 8,4 C 8,3 C 7,8 C 85 % 0 lf 1028,4 hPa 0,0 l/m 0 min 0 min 56 W/m 27,0 km/h (4 Bft) 97,87 %
06.12.2017 14:32 8,4 C 8,3 C 7,8 C 85 % 0 lf 1028,4 hPa 0,0 l/m 0 min 0 min 56 W/m 20,3 km/h (4 Bft) 97,83 %
06.12.2017 14:34 8,4 C 8,9 C 7,8 C 85 % 0 lf 1028,4 hPa 0,0 l/m 0 min 0 min 54 W/m 20,3 km/h (4 Bft) 93,62 %
06.12.2017 14:36 8,4 C 8,3 C 7,8 C 85 % 0 lf 1028,5 hPa 0,0 l/m 0 min 0 min 52 W/m 22,5 km/h (4 Bft) 97,87 %
06.12.2017 14:38 8,4 C 8,3 C 7,8 C 85 % 0 lf 1028,4 hPa 0,0 l/m 0 min 0 min 50 W/m 20,3 km/h (4 Bft) 95,74 %
06.12.2017 14:40 8,4 C 8,3 C 7,8 C 85 % 0 lf 1028,4 hPa 0,0 l/m 0 min 0 min 49 W/m 27,0 km/h (4 Bft) 95,74 %
06.12.2017 14:42 8,4 C 8,3 C 7,2 C 86 % 0 lf 1028,3 hPa 0,0 l/m 0 min 0 min 47 W/m 22,5 km/h (4 Bft) 97,87 %
06.12.2017 14:44 8,3 C 8,3 C 7,2 C 86 % 0 lf 1028,3 hPa 0,0 l/m 0 min 0 min 46 W/m 18,0 km/h (3 Bft) 95,65 %
06.12.2017 14:46 8,3 C 8,3 C 7,2 C 86 % 0 lf 1028,3 hPa 0,0 l/m 0 min 0 min 45 W/m 18,0 km/h (3 Bft) 97,87 %
06.12.2017 14:48 8,3 C 8,3 C 7,2 C 86 % 0 lf 1028,3 hPa 0,0 l/m 0 min 0 min 43 W/m 22,5 km/h (4 Bft) 95,74 %
06.12.2017 14:50 8,3 C 8,3 C 7,2 C 86 % 0 lf 1028,3 hPa 0,0 l/m 0 min 0 min 42 W/m 18,0 km/h (3 Bft) 95,74 %
06.12.2017 14:52 8,3 C 8,3 C 7,2 C 86 % 0 lf 1028,3 hPa 0,0 l/m 0 min 0 min 40 W/m 29,3 km/h (5 Bft) 97,87 %
06.12.2017 14:54 8,3 C 8,3 C 7,2 C 86 % 0 lf 1028,3 hPa 0,0 l/m 0 min 0 min 39 W/m 20,3 km/h (4 Bft) 95,65 %
06.12.2017 14:56 8,3 C 8,3 C 7,2 C 86 % 0 lf 1028,3 hPa 0,0 l/m 0 min 0 min 38 W/m 22,5 km/h (4 Bft) 97,87 %
06.12.2017 14:58 8,3 C 8,3 C 7,2 C 86 % 0 lf 1028,2 hPa 0,0 l/m 0 min 0 min 37 W/m 11,3 km/h (2 Bft) 97,87 %
06.12.2017 15:00 8,3 C 8,3 C 7,2 C 86 % 0 lf 1028,2 hPa 0,0 l/m 0 min 0 min 37 W/m 15,8 km/h (3 Bft) 95,74 %
06.12.2017 15:02 8,3 C 8,3 C 7,2 C 86 % 0 lf 1028,2 hPa 0,0 l/m 0 min 0 min 35 W/m 15,8 km/h (3 Bft) 95,74 %
06.12.2017 15:04 8,3 C 8,3 C 7,2 C 86 % 0 lf 1028,2 hPa 0,0 l/m 0 min 0 min 35 W/m 13,5 km/h (3 Bft) 93,62 %
06.12.2017 15:06 8,3 C 8,3 C 7,2 C 86 % 0 lf 1028,2 hPa 0,0 l/m 0 min 0 min 34 W/m 18,0 km/h (3 Bft) 97,83 %
06.12.2017 15:10 8,2 C 8,3 C 7,2 C 86 % 0 lf 1028,3 hPa 0,0 l/m 0 min 0 min 32 W/m 18,0 km/h (3 Bft) 95,88 %
06.12.2017 15:12 8,3 C 8,3 C 7,2 C 86 % 0 lf 1028,2 hPa 0,0 l/m 0 min 0 min 31 W/m 15,8 km/h (3 Bft) 95,74 %
06.12.2017 15:14 8,2 C 8,3 C 7,2 C 86 % 0 lf 1028,2 hPa 0,0 l/m 0 min 0 min 30 W/m 13,5 km/h (3 Bft) 97,87 %
06.12.2017 15:16 8,2 C 8,3 C 7,2 C 86 % 0 lf 1028,2 hPa 0,0 l/m 0 min 0 min 30 W/m 11,3 km/h (2 Bft) 95,74 %
06.12.2017 15:18 8,2 C 8,3 C 7,2 C 86 % 0 lf 1028,2 hPa 0,0 l/m 0 min 0 min 29 W/m 11,3 km/h (2 Bft) 95,65 %
06.12.2017 15:20 8,2 C 8,3 C 7,2 C 86 % 0 lf 1028,2 hPa 0,0 l/m 0 min 0 min 28 W/m 13,5 km/h (3 Bft) 93,62 %
06.12.2017 15:22 8,2 C 8,3 C 7,2 C 86 % 0 lf 1028,2 hPa 0,0 l/m 0 min 0 min 28 W/m 11,3 km/h (2 Bft) 95,74 %
06.12.2017 15:24 8,2 C 8,3 C 7,2 C 86 % 0 lf 1028,2 hPa 0,0 l/m 0 min 0 min 26 W/m 15,8 km/h (3 Bft) 93,62 %
06.12.2017 15:26 8,2 C 8,3 C 7,2 C 86 % 0 lf 1028,2 hPa 0,0 l/m 0 min 0 min 26 W/m 15,8 km/h (3 Bft) 95,74 %
06.12.2017 15:28 8,2 C 7,8 C 7,2 C 86 % 0 lf 1028,2 hPa 0,0 l/m 0 min 0 min 25 W/m 13,5 km/h (3 Bft) 95,74 %
06.12.2017 15:30 8,2 C 7,8 C 7,2 C 87 % 0 lf 1028,2 hPa 0,0 l/m 0 min 0 min 23 W/m 13,5 km/h (3 Bft) 95,65 %
06.12.2017 15:32 8,2 C 7,8 C 7,2 C 87 % 0 lf 1028,2 hPa 0,0 l/m 0 min 0 min 23 W/m 9,0 km/h (2 Bft) 95,74 %
06.12.2017 15:34 8,2 C 7,8 C 7,2 C 87 % 0 lf 1028,2 hPa 0,0 l/m 0 min 0 min 23 W/m 13,5 km/h (3 Bft) 95,74 %
06.12.2017 15:36 8,2 C 7,8 C 6,7 C 87 % 0 lf 1028,2 hPa 0,0 l/m 0 min 0 min 21 W/m 20,3 km/h (4 Bft) 95,74 %
06.12.2017 15:38 8,2 C 7,8 C 6,7 C 87 % 0 lf 1028,2 hPa 0,0 l/m 0 min 0 min 19 W/m 15,8 km/h (3 Bft) 91,49 %
06.12.2017 15:40 8,1 C 7,8 C 6,7 C 87 % 0 lf 1028,2 hPa 0,0 l/m 0 min 0 min 19 W/m 13,5 km/h (3 Bft) 95,65 %
06.12.2017 15:42 8,1 C 7,8 C 6,7 C 87 % 0 lf 1028,2 hPa 0,0 l/m 0 min 0 min 18 W/m 15,8 km/h (3 Bft) 93,62 %
06.12.2017 15:44 8,1 C 7,8 C 6,7 C 87 % 0 lf 1028,2 hPa 0,0 l/m 0 min 0 min 17 W/m 15,8 km/h (3 Bft) 93,62 %
06.12.2017 15:46 8,1 C 7,8 C 6,7 C 87 % 0 lf 1028,2 hPa 0,0 l/m 0 min 0 min 16 W/m 15,8 km/h (3 Bft) 97,87 %
06.12.2017 15:48 8,1 C 7,8 C 6,7 C 87 % 0 lf 1028,2 hPa 0,0 l/m 0 min 0 min 16 W/m 11,3 km/h (2 Bft) 100,00 %
06.12.2017 15:50 8,0 C 7,8 C 6,7 C 87 % 0 lf 1028,1 hPa 0,0 l/m 0 min 0 min 16 W/m 13,5 km/h (3 Bft) 100,00 %
06.12.2017 15:52 8,0 C 7,8 C 6,7 C 87 % 0 lf 1028,2 hPa 0,0 l/m 0 min 0 min 14 W/m 15,8 km/h (3 Bft) 97,83 %
06.12.2017 15:54 8,0 C 7,8 C 6,7 C 87 % 0 lf 1028,1 hPa 0,0 l/m 0 min 0 min 14 W/m 11,3 km/h (2 Bft) 100,00 %
06.12.2017 15:56 7,9 C 7,8 C 6,7 C 87 % 0 lf 1028,1 hPa 0,0 l/m 0 min 0 min 12 W/m 15,8 km/h (3 Bft) 97,87 %
06.12.2017 15:58 7,9 C 7,8 C 6,7 C 87 % 0 lf 1028,1 hPa 0,0 l/m 0 min 0 min 12 W/m 20,3 km/h (4 Bft) 100,00 %
06.12.2017 16:00 7,9 C 7,8 C 6,7 C 87 % 0 lf 1028,1 hPa 0,0 l/m 0 min 0 min 11 W/m 15,8 km/h (3 Bft) 97,87 %
06.12.2017 16:02 7,9 C 7,8 C 6,7 C 88 % 0 lf 1028,1 hPa 0,0 l/m 0 min 0 min 11 W/m 13,5 km/h (3 Bft) 97,87 %
06.12.2017 16:04 7,9 C 7,8 C 6,7 C 88 % 0 lf 1028,1 hPa 0,0 l/m 0 min 0 min 11 W/m 13,5 km/h (3 Bft) 100,00 %
06.12.2017 16:06 7,9 C 7,8 C 6,7 C 88 % 0 lf 1028,1 hPa 0,0 l/m 0 min 0 min 11 W/m 20,3 km/h (4 Bft) 97,87 %
06.12.2017 16:10 7,8 C 7,8 C 6,7 C 88 % 0 lf 1028,1 hPa 0,0 l/m 0 min 0 min 9 W/m 18,0 km/h (3 Bft) 98,96 %
06.12.2017 16:12 7,8 C 7,8 C 6,7 C 88 % 0 lf 1028,2 hPa 0,0 l/m 0 min 0 min 8 W/m 18,0 km/h (3 Bft) 100,00 %
06.12.2017 16:14 7,8 C 7,2 C 6,7 C 88 % 0 lf 1028,1 hPa 0,0 l/m 0 min 0 min 7 W/m 18,0 km/h (3 Bft) 95,65 %
06.12.2017 16:16 7,8 C 7,2 C 6,7 C 88 % 0 lf 1028,1 hPa 0,0 l/m 0 min 0 min 7 W/m 27,0 km/h (4 Bft) 93,62 %
06.12.2017 16:18 7,8 C 7,2 C 6,1 C 88 % 0 lf 1028,0 hPa 0,0 l/m 0 min 0 min 6 W/m 18,0 km/h (3 Bft) 97,87 %
06.12.2017 16:20 7,7 C 7,2 C 6,1 C 88 % 0 lf 1027,9 hPa 0,0 l/m 0 min 0 min 5 W/m 20,3 km/h (4 Bft) 100,00 %
06.12.2017 16:22 7,7 C 7,2 C 6,1 C 88 % 0 lf 1028,1 hPa 0,0 l/m 0 min 0 min 5 W/m 24,8 km/h (4 Bft) 100,00 %
06.12.2017 16:24 7,7 C 7,2 C 6,1 C 88 % 0 lf 1028,0 hPa 0,0 l/m 0 min 0 min 4 W/m 15,8 km/h (3 Bft) 97,87 %
06.12.2017 16:26 7,7 C 7,2 C 6,1 C 88 % 0 lf 1028,0 hPa 0,0 l/m 0 min 0 min 0 W/m 11,3 km/h (2 Bft) 93,48 %
06.12.2017 16:28 7,7 C 7,2 C 6,1 C 88 % 0 lf 1028,0 hPa 0,0 l/m 0 min 0 min 0 W/m 18,0 km/h (3 Bft) 95,74 %
06.12.2017 16:30 7,7 C 7,2 C 6,1 C 88 % 0 lf 1028,0 hPa 0,0 l/m 0 min 0 min 0 W/m 24,8 km/h (4 Bft) 97,87 %
06.12.2017 16:32 7,6 C 7,2 C 6,1 C 88 % 0 lf 1028,0 hPa 0,0 l/m 0 min 0 min 0 W/m 11,3 km/h (2 Bft) 93,62 %
06.12.2017 16:34 7,6 C 7,2 C 6,1 C 88 % 0 lf 1028,0 hPa 0,0 l/m 0 min 0 min 0 W/m 13,5 km/h (3 Bft) 93,62 %
06.12.2017 16:36 7,6 C 7,2 C 6,1 C 88 % 0 lf 1028,0 hPa 0,0 l/m 0 min 0 min 0 W/m 15,8 km/h (3 Bft) 97,87 %
06.12.2017 16:38 7,6 C 7,2 C 6,1 C 88 % 0 lf 1028,0 hPa 0,0 l/m 0 min 0 min 0 W/m 13,5 km/h (3 Bft) 95,65 %
06.12.2017 16:40 7,6 C 7,2 C 6,1 C 88 % 0 lf 1028,0 hPa 0,0 l/m 0 min 0 min 0 W/m 15,8 km/h (3 Bft) 97,87 %
06.12.2017 16:42 7,6 C 7,2 C 6,1 C 88 % 0 lf 1027,9 hPa 0,0 l/m 0 min 0 min 0 W/m 13,5 km/h (3 Bft) 97,87 %
06.12.2017 16:44 7,5 C 7,2 C 6,1 C 88 % 0 lf 1028,0 hPa 0,0 l/m 0 min 0 min 0 W/m 15,8 km/h (3 Bft) 97,87 %
06.12.2017 16:46 7,5 C 7,2 C 6,1 C 88 % 0 lf 1028,0 hPa 0,0 l/m 0 min 0 min 0 W/m 11,3 km/h (2 Bft) 97,67 %
06.12.2017 16:48 7,5 C 7,2 C 6,1 C 88 % 0 lf 1027,9 hPa 0,0 l/m 0 min 0 min 0 W/m 15,8 km/h (3 Bft) 97,87 %
06.12.2017 16:50 7,5 C 7,2 C 6,1 C 88 % 0 lf 1028,0 hPa 0,0 l/m 0 min 0 min 0 W/m 22,5 km/h (4 Bft) 95,74 %
06.12.2017 16:52 7,4 C 7,2 C 6,1 C 88 % 0 lf 1027,9 hPa 0,0 l/m 0 min 0 min 0 W/m 20,3 km/h (4 Bft) 95,65 %
06.12.2017 16:54 7,4 C 7,2 C 6,1 C 88 % 0 lf 1027,9 hPa 0,0 l/m 0 min 0 min 0 W/m 15,8 km/h (3 Bft) 95,74 %
06.12.2017 16:56 7,4 C 7,2 C 6,1 C 88 % 0 lf 1027,9 hPa 0,0 l/m 0 min 0 min 0 W/m 18,0 km/h (3 Bft) 93,62 %
06.12.2017 16:58 7,4 C 7,2 C 6,1 C 88 % 0 lf 1027,9 hPa 0,0 l/m 0 min 0 min 0 W/m 20,3 km/h (4 Bft) 93,62 %
06.12.2017 17:00 7,4 C 7,2 C 6,1 C 88 % 0 lf 1027,9 hPa 0,0 l/m 0 min 0 min 0 W/m 11,3 km/h (2 Bft) 96,08 %
06.12.2017 17:02 7,4 C 7,2 C 6,1 C 88 % 0 lf 1027,9 hPa 0,0 l/m 0 min 0 min 0 W/m 15,8 km/h (3 Bft) 91,30 %
06.12.2017 17:04 7,4 C 7,2 C 6,1 C 89 % 0 lf 1027,9 hPa 0,0 l/m 0 min 0 min 0 W/m 22,5 km/h (4 Bft) 95,74 %
06.12.2017 17:06 7,4 C 7,2 C 6,1 C 89 % 0 lf 1027,8 hPa 0,0 l/m 0 min 0 min 0 W/m 15,8 km/h (3 Bft) 91,49 %
06.12.2017 17:10 7,3 C 7,2 C 6,1 C 89 % 0 lf 1027,8 hPa 0,0 l/m 0 min 0 min 0 W/m 15,8 km/h (3 Bft) 93,98 %
06.12.2017 17:12 7,3 C 7,2 C 6,1 C 89 % 0 lf 1027,8 hPa 0,0 l/m 0 min 0 min 0 W/m 18,0 km/h (3 Bft) 91,49 %
06.12.2017 17:14 7,3 C 7,2 C 6,1 C 89 % 0 lf 1027,8 hPa 0,0 l/m 0 min 0 min 0 W/m 22,5 km/h (4 Bft) 93,62 %
06.12.2017 17:16 7,3 C 7,2 C 6,1 C 89 % 0 lf 1027,7 hPa 0,0 l/m 0 min 0 min 0 W/m 20,3 km/h (4 Bft) 91,49 %
06.12.2017 17:18 7,3 C 7,2 C 6,1 C 89 % 0 lf 1027,7 hPa 0,0 l/m 0 min 0 min 0 W/m 18,0 km/h (3 Bft) 95,65 %
06.12.2017 17:20 7,3 C 7,2 C 6,1 C 89 % 0 lf 1027,6 hPa 0,0 l/m 0 min 0 min 0 W/m 24,8 km/h (4 Bft) 96,61 %
06.12.2017 17:22 7,3 C 7,2 C 6,1 C 89 % 0 lf 1027,6 hPa 0,0 l/m 0 min 0 min 0 W/m 20,3 km/h (4 Bft) 95,74 %
06.12.2017 17:24 7,3 C 7,2 C 6,1 C 89 % 0 lf 1027,7 hPa 0,0 l/m 0 min 0 min 0 W/m 20,3 km/h (4 Bft) 91,43 %
06.12.2017 17:26 7,3 C 7,2 C 6,1 C 89 % 0 lf 1027,6 hPa 0,0 l/m 0 min 0 min 0 W/m 20,3 km/h (4 Bft) 93,62 %
06.12.2017 17:28 7,3 C 7,2 C 6,1 C 89 % 0 lf 1027,5 hPa 0,0 l/m 0 min 0 min 0 W/m 15,8 km/h (3 Bft) 95,65 %
06.12.2017 17:30 7,3 C 7,2 C 6,1 C 89 % 0 lf 1027,5 hPa 0,0 l/m 0 min 0 min 0 W/m 15,8 km/h (3 Bft) 95,74 %
06.12.2017 17:32 7,3 C 7,2 C 6,1 C 89 % 0 lf 1027,5 hPa 0,0 l/m 0 min 0 min 0 W/m 22,5 km/h (4 Bft) 93,62 %
06.12.2017 17:34 7,3 C 7,2 C 6,1 C 89 % 0 lf 1027,5 hPa 0,0 l/m 0 min 0 min 0 W/m 18,0 km/h (3 Bft) 91,49 %
06.12.2017 17:36 7,3 C 7,2 C 6,1 C 89 % 0 lf 1027,5 hPa 0,0 l/m 0 min 0 min 0 W/m 13,5 km/h (3 Bft) 95,74 %
06.12.2017 17:38 7,3 C 7,2 C 6,1 C 89 % 0 lf 1027,5 hPa 0,0 l/m 0 min 0 min 0 W/m 13,5 km/h (3 Bft) 97,87 %
06.12.2017 17:40 7,3 C 7,2 C 6,1 C 89 % 0 lf 1027,5 hPa 0,0 l/m 0 min 0 min 0 W/m 20,3 km/h (4 Bft) 95,74 %
06.12.2017 17:42 7,3 C 7,2 C 6,1 C 89 % 0 lf 1027,5 hPa 0,0 l/m 0 min 0 min 0 W/m 18,0 km/h (3 Bft) 100,00 %
06.12.2017 17:44 7,3 C 7,2 C 6,1 C 89 % 0 lf 1027,5 hPa 0,0 l/m 0 min 0 min 0 W/m 18,0 km/h (3 Bft) 100,00 %
06.12.2017 17:46 7,3 C 7,2 C 6,1 C 89 % 0 lf 1027,4 hPa 0,0 l/m 0 min 0 min 0 W/m 13,5 km/h (3 Bft) 100,00 %
06.12.2017 17:48 7,3 C 7,2 C 6,1 C 89 % 0 lf 1027,5 hPa 0,0 l/m 0 min 0 min 0 W/m 15,8 km/h (3 Bft) 100,00 %
06.12.2017 17:50 7,3 C 7,2 C 6,1 C 89 % 0 lf 1027,4 hPa 0,0 l/m 0 min 0 min 0 W/m 22,5 km/h (4 Bft) 98,28 %
06.12.2017 17:52 7,3 C 7,2 C 6,1 C 89 % 0 lf 1027,5 hPa 0,0 l/m 0 min 0 min 0 W/m 20,3 km/h (4 Bft) 97,87 %
06.12.2017 17:54 7,3 C 7,2 C 6,1 C 89 % 0 lf 1027,5 hPa 0,0 l/m 0 min 0 min 0 W/m 11,3 km/h (2 Bft) 100,00 %
06.12.2017 17:56 7,3 C 7,2 C 6,1 C 89 % 0 lf 1027,5 hPa 0,0 l/m 0 min 0 min 0 W/m 15,8 km/h (3 Bft) 97,87 %
06.12.2017 17:58 7,2 C 7,2 C 6,1 C 89 % 0 lf 1027,5 hPa 0,0 l/m 0 min 0 min 0 W/m 15,8 km/h (3 Bft) 97,87 %
06.12.2017 18:00 7,3 C 7,2 C 6,1 C 89 % 0 lf 1027,5 hPa 0,0 l/m 0 min 0 min 0 W/m 13,5 km/h (3 Bft) 97,87 %
06.12.2017 18:02 7,3 C 7,2 C 6,1 C 89 % 0 lf 1027,5 hPa 0,0 l/m 0 min 0 min 0 W/m 22,5 km/h (4 Bft) 97,87 %
06.12.2017 18:04 7,3 C 7,2 C 6,1 C 89 % 0 lf 1027,5 hPa 0,0 l/m 0 min 0 min 0 W/m 15,8 km/h (3 Bft) 100,00 %
06.12.2017 18:06 7,2 C 7,2 C 6,1 C 89 % 0 lf 1027,5 hPa 0,0 l/m 0 min 0 min 0 W/m 15,8 km/h (3 Bft) 100,00 %
06.12.2017 18:10 7,2 C 7,2 C 6,1 C 89 % 0 lf 1027,4 hPa 0,0 l/m 0 min 0 min 0 W/m 13,5 km/h (3 Bft) 98,94 %
06.12.2017 18:12 7,2 C 7,2 C 6,1 C 89 % 0 lf 1027,4 hPa 0,0 l/m 0 min 0 min 0 W/m 15,8 km/h (3 Bft) 100,00 %
06.12.2017 18:14 7,2 C 7,2 C 6,1 C 89 % 0 lf 1027,4 hPa 0,0 l/m 0 min 0 min 0 W/m 18,0 km/h (3 Bft) 97,87 %
06.12.2017 18:16 7,2 C 7,2 C 6,1 C 89 % 0 lf 1027,4 hPa 0,0 l/m 0 min 0 min 0 W/m 18,0 km/h (3 Bft) 93,48 %
06.12.2017 18:18 7,2 C 7,2 C 6,1 C 89 % 0 lf 1027,4 hPa 0,0 l/m 0 min 0 min 0 W/m 15,8 km/h (3 Bft) 100,00 %
06.12.2017 18:20 7,2 C 7,2 C 6,1 C 89 % 0 lf 1027,4 hPa 0,0 l/m 0 min 0 min 0 W/m 18,0 km/h (3 Bft) 97,87 %
06.12.2017 18:22 7,2 C 7,2 C 6,1 C 89 % 0 lf 1027,4 hPa 0,0 l/m 0 min 0 min 0 W/m 20,3 km/h (4 Bft) 100,00 %
06.12.2017 18:24 7,2 C 7,2 C 6,1 C 89 % 0 lf 1027,4 hPa 0,0 l/m 0 min 0 min 0 W/m 15,8 km/h (3 Bft) 95,74 %
06.12.2017 18:26 7,2 C 7,2 C 6,1 C 89 % 0 lf 1027,4 hPa 0,0 l/m 0 min 0 min 0 W/m 20,3 km/h (4 Bft) 100,00 %
06.12.2017 18:28 7,2 C 7,2 C 6,1 C 89 % 0 lf 1027,4 hPa 0,0 l/m 0 min 0 min 0 W/m 11,3 km/h (2 Bft) 100,00 %
06.12.2017 18:30 7,2 C 7,2 C 6,1 C 89 % 0 lf 1027,4 hPa 0,0 l/m 0 min 0 min 0 W/m 18,0 km/h (3 Bft) 100,00 %
06.12.2017 18:32 7,2 C 7,2 C 6,1 C 89 % 0 lf 1027,4 hPa 0,0 l/m 0 min 0 min 0 W/m 18,0 km/h (3 Bft) 95,74 %
06.12.2017 18:34 7,2 C 7,2 C 6,1 C 89 % 0 lf 1027,4 hPa 0,0 l/m 0 min 0 min 0 W/m 24,8 km/h (4 Bft) 97,87 %
06.12.2017 18:36 7,2 C 7,2 C 6,1 C 89 % 0 lf 1027,3 hPa 0,0 l/m 0 min 0 min 0 W/m 22,5 km/h (4 Bft) 95,74 %
06.12.2017 18:38 7,2 C 7,2 C 6,1 C 89 % 0 lf 1027,4 hPa 0,0 l/m 0 min 0 min 0 W/m 24,8 km/h (4 Bft) 95,74 %
06.12.2017 18:40 7,2 C 7,2 C 6,1 C 89 % 0 lf 1027,3 hPa 0,0 l/m 0 min 0 min 0 W/m 18,0 km/h (3 Bft) 95,65 %
06.12.2017 18:42 7,2 C 7,2 C 6,1 C 89 % 0 lf 1027,3 hPa 0,0 l/m 0 min 0 min 0 W/m 18,0 km/h (3 Bft) 93,62 %
06.12.2017 18:44 7,2 C 7,2 C 6,1 C 89 % 0 lf 1027,2 hPa 0,0 l/m 0 min 0 min 0 W/m 15,8 km/h (3 Bft) 97,87 %
06.12.2017 18:46 7,2 C 7,2 C 6,1 C 89 % 0 lf 1027,2 hPa 0,0 l/m 0 min 0 min 0 W/m 15,8 km/h (3 Bft) 97,87 %
06.12.2017 18:48 7,2 C 7,2 C 6,1 C 89 % 0 lf 1027,2 hPa 0,0 l/m 0 min 0 min 0 W/m 11,3 km/h (2 Bft) 97,87 %
06.12.2017 18:50 7,2 C 7,2 C 6,1 C 89 % 0 lf 1027,1 hPa 0,0 l/m 0 min 0 min 0 W/m 20,3 km/h (4 Bft) 94,23 %
06.12.2017 18:52 7,2 C 7,2 C 6,1 C 89 % 0 lf 1027,1 hPa 0,0 l/m 0 min 0 min 0 W/m 11,3 km/h (2 Bft) 97,56 %
06.12.2017 18:54 7,2 C 7,2 C 6,1 C 89 % 0 lf 1027,1 hPa 0,0 l/m 0 min 0 min 0 W/m 20,3 km/h (4 Bft) 97,87 %
06.12.2017 18:56 7,2 C 7,2 C 6,1 C 89 % 0 lf 1027,1 hPa 0,0 l/m 0 min 0 min 0 W/m 18,0 km/h (3 Bft) 97,87 %
06.12.2017 18:58 7,2 C 7,2 C 6,1 C 89 % 0 lf 1027,1 hPa 0,0 l/m 0 min 0 min 0 W/m 20,3 km/h (4 Bft) 95,74 %
06.12.2017 19:00 7,2 C 7,2 C 6,1 C 89 % 0 lf 1027,1 hPa 0,0 l/m 0 min 0 min 0 W/m 22,5 km/h (4 Bft) 93,62 %
06.12.2017 19:02 7,2 C 7,2 C 6,1 C 89 % 0 lf 1027,0 hPa 0,0 l/m 0 min 0 min 0 W/m 13,5 km/h (3 Bft) 91,30 %
06.12.2017 19:04 7,2 C 7,2 C 6,1 C 89 % 0 lf 1027,0 hPa 0,0 l/m 0 min 0 min 0 W/m 15,8 km/h (3 Bft) 93,62 %
06.12.2017 19:06 7,2 C 7,2 C 6,1 C 89 % 0 lf 1027,0 hPa 0,0 l/m 0 min 0 min 0 W/m 22,5 km/h (4 Bft) 88,68 %
06.12.2017 19:10 7,2 C 7,2 C 6,1 C 89 % 0 lf 1027,0 hPa 0,0 l/m 0 min 0 min 0 W/m 20,3 km/h (4 Bft) 93,81 %
06.12.2017 19:12 7,2 C 7,2 C 6,1 C 89 % 0 lf 1027,0 hPa 0,0 l/m 0 min 0 min 0 W/m 15,8 km/h (3 Bft) 93,48 %
06.12.2017 19:14 7,2 C 7,2 C 5,6 C 89 % 0 lf 1027,0 hPa 0,0 l/m 0 min 0 min 0 W/m 18,0 km/h (3 Bft) 91,49 %
06.12.2017 19:16 7,2 C 7,2 C 6,1 C 89 % 0 lf 1027,0 hPa 0,0 l/m 0 min 0 min 0 W/m 20,3 km/h (4 Bft) 93,62 %
06.12.2017 19:18 7,2 C 7,2 C 6,1 C 89 % 0 lf 1026,9 hPa 0,0 l/m 0 min 0 min 0 W/m 20,3 km/h (4 Bft) 95,74 %
06.12.2017 19:20 7,2 C 7,2 C 6,1 C 89 % 0 lf 1026,9 hPa 0,0 l/m 0 min 0 min 0 W/m 18,0 km/h (3 Bft) 91,49 %
06.12.2017 19:22 7,2 C 7,2 C 6,1 C 89 % 0 lf 1026,9 hPa 0,0 l/m 0 min 0 min 0 W/m 15,8 km/h (3 Bft) 93,48 %
06.12.2017 19:24 7,2 C 7,2 C 6,1 C 89 % 0 lf 1026,9 hPa 0,0 l/m 0 min 0 min 0 W/m 15,8 km/h (3 Bft) 87,23 %
06.12.2017 19:26 7,2 C 7,2 C 6,1 C 89 % 0 lf 1026,9 hPa 0,0 l/m 0 min 0 min 0 W/m 15,8 km/h (3 Bft) 93,62 %
06.12.2017 19:28 7,2 C 7,2 C 6,1 C 89 % 0 lf 1026,9 hPa 0,0 l/m 0 min 0 min 0 W/m 24,8 km/h (4 Bft) 93,62 %
06.12.2017 19:30 7,2 C 7,2 C 6,1 C 89 % 0 lf 1026,9 hPa 0,0 l/m 0 min 0 min 0 W/m 18,0 km/h (3 Bft) 95,74 %
06.12.2017 19:32 7,2 C 7,2 C 5,6 C 89 % 0 lf 1026,8 hPa 0,0 l/m 0 min 0 min 0 W/m 20,3 km/h (4 Bft) 93,62 %
06.12.2017 19:34 7,2 C 7,2 C 5,6 C 89 % 0 lf 1026,8 hPa 0,0 l/m 0 min 0 min 0 W/m 15,8 km/h (3 Bft) 93,48 %
06.12.2017 19:36 7,2 C 7,2 C 5,6 C 89 % 0 lf 1026,8 hPa 0,0 l/m 0 min 0 min 0 W/m 20,3 km/h (4 Bft) 95,74 %
06.12.2017 19:38 7,2 C 7,2 C 6,1 C 89 % 0 lf 1026,8 hPa 0,0 l/m 0 min 0 min 0 W/m 20,3 km/h (4 Bft) 95,74 %
06.12.2017 19:40 7,2 C 7,2 C 6,1 C 89 % 0 lf 1026,8 hPa 0,0 l/m 0 min 0 min 0 W/m 22,5 km/h (4 Bft) 95,74 %
06.12.2017 19:42 7,2 C 7,2 C 6,1 C 89 % 0 lf 1026,7 hPa 0,0 l/m 0 min 0 min 0 W/m 18,0 km/h (3 Bft) 95,74 %
06.12.2017 19:44 7,2 C 7,2 C 6,1 C 88 % 0 lf 1026,7 hPa 0,0 l/m 0 min 0 min 0 W/m 22,5 km/h (4 Bft) 97,87 %
06.12.2017 19:46 7,2 C 7,2 C 6,1 C 88 % 0 lf 1026,7 hPa 0,0 l/m 0 min 0 min 0 W/m 15,8 km/h (3 Bft) 93,48 %
06.12.2017 19:48 7,2 C 7,2 C 6,1 C 88 % 0 lf 1026,7 hPa 0,0 l/m 0 min 0 min 0 W/m 24,8 km/h (4 Bft) 95,74 %
06.12.2017 19:50 7,2 C 7,2 C 5,6 C 88 % 0 lf 1026,7 hPa 0,0 l/m 0 min 0 min 0 W/m 15,8 km/h (3 Bft) 95,74 %
06.12.2017 19:52 7,2 C 7,2 C 5,6 C 88 % 0 lf 1026,7 hPa 0,0 l/m 0 min 0 min 0 W/m 20,3 km/h (4 Bft) 97,56 %
06.12.2017 19:54 7,2 C 7,2 C 6,1 C 88 % 0 lf 1026,6 hPa 0,0 l/m 0 min 0 min 0 W/m 20,3 km/h (4 Bft) 97,87 %
06.12.2017 19:56 7,2 C 7,2 C 6,1 C 88 % 0 lf 1026,5 hPa 0,0 l/m 0 min 0 min 0 W/m 27,0 km/h (4 Bft) 97,87 %
06.12.2017 19:58 7,2 C 7,2 C 6,1 C 88 % 0 lf 1026,5 hPa 0,0 l/m 0 min 0 min 0 W/m 22,5 km/h (4 Bft) 95,74 %
06.12.2017 20:00 7,2 C 7,2 C 6,1 C 88 % 0 lf 1026,5 hPa 0,0 l/m 0 min 0 min 0 W/m 27,0 km/h (4 Bft) 97,83 %
06.12.2017 20:02 7,2 C 7,2 C 6,1 C 88 % 0 lf 1026,5 hPa 0,0 l/m 0 min 0 min 0 W/m 27,0 km/h (4 Bft) 94,34 %
06.12.2017 20:04 7,2 C 7,2 C 6,1 C 88 % 0 lf 1026,5 hPa 0,0 l/m 0 min 0 min 0 W/m 27,0 km/h (4 Bft) 95,74 %
06.12.2017 20:06 7,2 C 7,2 C 6,1 C 88 % 0 lf 1026,4 hPa 0,0 l/m 0 min 0 min 0 W/m 24,8 km/h (4 Bft) 97,56 %
06.12.2017 20:10 7,2 C 7,2 C 6,1 C 88 % 0 lf 1026,4 hPa 0,0 l/m 0 min 0 min 0 W/m 18,0 km/h (3 Bft) 96,77 %
06.12.2017 20:12 7,2 C 7,2 C 6,1 C 88 % 0 lf 1026,5 hPa 0,0 l/m 0 min 0 min 0 W/m 27,0 km/h (4 Bft) 97,87 %
06.12.2017 20:14 7,2 C 7,2 C 6,1 C 88 % 0 lf 1026,4 hPa 0,0 l/m 0 min 0 min 0 W/m 24,8 km/h (4 Bft) 95,74 %
06.12.2017 20:16 7,2 C 7,2 C 6,1 C 88 % 0 lf 1026,3 hPa 0,0 l/m 0 min 0 min 0 W/m 27,0 km/h (4 Bft) 97,87 %
06.12.2017 20:18 7,2 C 7,2 C 6,1 C 88 % 0 lf 1026,4 hPa 0,0 l/m 0 min 0 min 0 W/m 15,8 km/h (3 Bft) 97,87 %
06.12.2017 20:20 7,2 C 7,2 C 5,6 C 88 % 0 lf 1026,3 hPa 0,0 l/m 0 min 0 min 0 W/m 27,0 km/h (4 Bft) 98,28 %
06.12.2017 20:22 7,2 C 7,2 C 5,6 C 87 % 0 lf 1026,4 hPa 0,0 l/m 0 min 0 min 0 W/m 20,3 km/h (4 Bft) 94,29 %
06.12.2017 20:24 7,2 C 7,2 C 5,6 C 87 % 0 lf 1026,3 hPa 0,0 l/m 0 min 0 min 0 W/m 29,3 km/h (5 Bft) 97,87 %
06.12.2017 20:26 7,2 C 7,2 C 5,6 C 87 % 0 lf 1026,4 hPa 0,0 l/m 0 min 0 min 0 W/m 31,5 km/h (5 Bft) 95,74 %
06.12.2017 20:28 7,2 C 7,2 C 6,1 C 87 % 0 lf 1026,4 hPa 0,0 l/m 0 min 0 min 0 W/m 22,5 km/h (4 Bft) 97,87 %
06.12.2017 20:30 7,2 C 7,2 C 5,6 C 87 % 0 lf 1026,3 hPa 0,0 l/m 0 min 0 min 0 W/m 22,5 km/h (4 Bft) 95,74 %
06.12.2017 20:32 7,2 C 7,2 C 5,6 C 87 % 0 lf 1026,3 hPa 0,0 l/m 0 min 0 min 0 W/m 24,8 km/h (4 Bft) 100,00 %
06.12.2017 20:34 7,2 C 7,2 C 5,6 C 87 % 0 lf 1026,3 hPa 0,0 l/m 0 min 0 min 0 W/m 20,3 km/h (4 Bft) 100,00 %
06.12.2017 20:36 7,2 C 7,2 C 5,6 C 87 % 0 lf 1026,3 hPa 0,0 l/m 0 min 0 min 0 W/m 31,5 km/h (5 Bft) 97,87 %
06.12.2017 20:38 7,2 C 7,2 C 5,6 C 87 % 0 lf 1026,3 hPa 0,0 l/m 0 min 0 min 0 W/m 24,8 km/h (4 Bft) 100,00 %
06.12.2017 20:40 7,2 C 7,2 C 5,6 C 87 % 0 lf 1026,3 hPa 0,0 l/m 0 min 0 min 0 W/m 18,0 km/h (3 Bft) 100,00 %
06.12.2017 20:42 7,2 C 7,2 C 5,6 C 87 % 0 lf 1026,3 hPa 0,0 l/m 0 min 0 min 0 W/m 27,0 km/h (4 Bft) 100,00 %
06.12.2017 20:44 7,1 C 7,2 C 5,6 C 87 % 0 lf 1026,3 hPa 0,0 l/m 0 min 0 min 0 W/m 20,3 km/h (4 Bft) 97,87 %
06.12.2017 20:46 7,1 C 7,2 C 5,6 C 87 % 0 lf 1026,3 hPa 0,0 l/m 0 min 0 min 0 W/m 24,8 km/h (4 Bft) 95,65 %
06.12.2017 20:48 7,1 C 7,2 C 5,6 C 87 % 0 lf 1026,2 hPa 0,0 l/m 0 min 0 min 0 W/m 15,8 km/h (3 Bft) 93,62 %
06.12.2017 20:50 7,2 C 7,2 C 5,6 C 86 % 0 lf 1026,3 hPa 0,0 l/m 0 min 0 min 0 W/m 18,0 km/h (3 Bft) 100,00 %
06.12.2017 20:52 7,1 C 7,2 C 5,6 C 86 % 0 lf 1026,3 hPa 0,0 l/m 0 min 0 min 0 W/m 20,3 km/h (4 Bft) 100,00 %
06.12.2017 20:54 7,1 C 7,2 C 5,6 C 86 % 0 lf 1026,2 hPa 0,0 l/m 0 min 0 min 0 W/m 20,3 km/h (4 Bft) 100,00 %
06.12.2017 20:56 7,1 C 7,2 C 5,6 C 86 % 0 lf 1026,2 hPa 0,0 l/m 0 min 0 min 0 W/m 15,8 km/h (3 Bft) 95,74 %
06.12.2017 20:58 7,2 C 7,2 C 5,6 C 86 % 0 lf 1026,3 hPa 0,0 l/m 0 min 0 min 0 W/m 15,8 km/h (3 Bft) 97,83 %
06.12.2017 21:00 7,2 C 7,2 C 5,6 C 86 % 0 lf 1026,2 hPa 0,0 l/m 0 min 0 min 0 W/m 15,8 km/h (3 Bft) 95,74 %
06.12.2017 21:02 7,1 C 7,2 C 5,6 C 86 % 0 lf 1026,2 hPa 0,0 l/m 0 min 0 min 0 W/m 24,8 km/h (4 Bft) 93,62 %
06.12.2017 21:04 7,1 C 7,2 C 5,6 C 86 % 0 lf 1026,1 hPa 0,0 l/m 0 min 0 min 0 W/m 15,8 km/h (3 Bft) 97,87 %
06.12.2017 21:06 7,1 C 7,2 C 5,6 C 86 % 0 lf 1026,1 hPa 0,0 l/m 0 min 0 min 0 W/m 18,0 km/h (3 Bft) 95,74 %
06.12.2017 21:10 7,1 C 7,2 C 5,6 C 85 % 0 lf 1026,1 hPa 0,0 l/m 0 min 0 min 0 W/m 18,0 km/h (3 Bft) 97,89 %
06.12.2017 21:12 7,1 C 7,2 C 5,6 C 85 % 0 lf 1026,1 hPa 0,0 l/m 0 min 0 min 0 W/m 18,0 km/h (3 Bft) 97,87 %
06.12.2017 21:14 7,1 C 7,2 C 5,6 C 85 % 0 lf 1026,0 hPa 0,0 l/m 0 min 0 min 0 W/m 15,8 km/h (3 Bft) 91,49 %
06.12.2017 21:16 7,1 C 7,2 C 5,6 C 85 % 0 lf 1026,0 hPa 0,0 l/m 0 min 0 min 0 W/m 15,8 km/h (3 Bft) 97,87 %
06.12.2017 21:18 7,1 C 7,2 C 5,6 C 85 % 0 lf 1026,0 hPa 0,0 l/m 0 min 0 min 0 W/m 15,8 km/h (3 Bft) 97,87 %
06.12.2017 21:20 7,1 C 7,2 C 5,6 C 85 % 0 lf 1026,0 hPa 0,0 l/m 0 min 0 min 0 W/m 22,5 km/h (4 Bft) 97,83 %
06.12.2017 21:22 7,1 C 7,2 C 5,6 C 85 % 0 lf 1026,0 hPa 0,0 l/m 0 min 0 min 0 W/m 20,3 km/h (4 Bft) 97,87 %
06.12.2017 21:24 7,1 C 7,2 C 5,6 C 85 % 0 lf 1025,9 hPa 0,0 l/m 0 min 0 min 0 W/m 22,5 km/h (4 Bft) 97,87 %
06.12.2017 21:26 7,1 C 7,2 C 5,6 C 85 % 0 lf 1025,9 hPa 0,0 l/m 0 min 0 min 0 W/m 15,8 km/h (3 Bft) 97,87 %
06.12.2017 21:28 7,1 C 6,7 C 5,6 C 85 % 0 lf 1025,9 hPa 0,0 l/m 0 min 0 min 0 W/m 18,0 km/h (3 Bft) 97,87 %
06.12.2017 21:30 7,1 C 7,2 C 5,6 C 85 % 0 lf 1025,9 hPa 0,0 l/m 0 min 0 min 0 W/m 20,3 km/h (4 Bft) 100,00 %
06.12.2017 21:32 7,1 C 6,7 C 5,6 C 85 % 0 lf 1025,8 hPa 0,0 l/m 0 min 0 min 0 W/m 15,8 km/h (3 Bft) 100,00 %
06.12.2017 21:34 7,1 C 6,7 C 5,6 C 85 % 0 lf 1025,8 hPa 0,0 l/m 0 min 0 min 0 W/m 22,5 km/h (4 Bft) 100,00 %
06.12.2017 21:36 7,1 C 6,7 C 5,6 C 85 % 0 lf 1025,8 hPa 0,0 l/m 0 min 0 min 0 W/m 22,5 km/h (4 Bft) 100,00 %
06.12.2017 21:38 7,1 C 6,7 C 5,6 C 85 % 0 lf 1025,8 hPa 0,0 l/m 0 min 0 min 0 W/m 20,3 km/h (4 Bft) 100,00 %
06.12.2017 21:40 7,1 C 6,7 C 5,6 C 85 % 0 lf 1025,7 hPa 0,0 l/m 0 min 0 min 0 W/m 27,0 km/h (4 Bft) 95,74 %
06.12.2017 21:42 7,1 C 6,7 C 5,6 C 85 % 0 lf 1025,7 hPa 0,0 l/m 0 min 0 min 0 W/m 22,5 km/h (4 Bft) 95,74 %
06.12.2017 21:44 7,0 C 6,7 C 5,6 C 85 % 0 lf 1025,7 hPa 0,0 l/m 0 min 0 min 0 W/m 18,0 km/h (3 Bft) 95,65 %
06.12.2017 21:46 7,0 C 6,7 C 5,6 C 85 % 0 lf 1025,7 hPa 0,0 l/m 0 min 0 min 0 W/m 20,3 km/h (4 Bft) 95,74 %
06.12.2017 21:48 7,0 C 6,7 C 5,6 C 85 % 0 lf 1025,6 hPa 0,0 l/m 0 min 0 min 0 W/m 20,3 km/h (4 Bft) 97,87 %
06.12.2017 21:50 7,0 C 6,7 C 5,6 C 84 % 0 lf 1025,6 hPa 0,0 l/m 0 min 0 min 0 W/m 20,3 km/h (4 Bft) 97,87 %
06.12.2017 21:52 7,0 C 6,7 C 5,6 C 84 % 0 lf 1025,6 hPa 0,0 l/m 0 min 0 min 0 W/m 20,3 km/h (4 Bft) 97,87 %
06.12.2017 21:54 7,0 C 6,7 C 5,6 C 84 % 0 lf 1025,6 hPa 0,0 l/m 0 min 0 min 0 W/m 15,8 km/h (3 Bft) 95,74 %
06.12.2017 21:56 7,0 C 6,7 C 5,6 C 84 % 0 lf 1025,6 hPa 0,0 l/m 0 min 0 min 0 W/m 24,8 km/h (4 Bft) 97,83 %
06.12.2017 21:58 7,0 C 6,7 C 5,6 C 84 % 0 lf 1025,5 hPa 0,0 l/m 0 min 0 min 0 W/m 24,8 km/h (4 Bft) 95,74 %
06.12.2017 22:00 6,9 C 6,7 C 5,6 C 84 % 0 lf 1025,5 hPa 0,0 l/m 0 min 0 min 0 W/m 18,0 km/h (3 Bft) 97,87 %
06.12.2017 22:02 6,9 C 6,7 C 5,6 C 84 % 0 lf 1025,4 hPa 0,0 l/m 0 min 0 min 0 W/m 31,5 km/h (5 Bft) 97,87 %
06.12.2017 22:04 6,9 C 6,7 C 5,6 C 84 % 0 lf 1025,5 hPa 0,0 l/m 0 min 0 min 0 W/m 22,5 km/h (4 Bft) 97,87 %
06.12.2017 22:06 6,9 C 6,7 C 5,6 C 84 % 0 lf 1025,5 hPa 0,0 l/m 0 min 0 min 0 W/m 15,8 km/h (3 Bft) 97,87 %
06.12.2017 22:10 6,9 C 6,7 C 5,6 C 84 % 0 lf 1025,5 hPa 0,0 l/m 0 min 0 min 0 W/m 27,0 km/h (4 Bft) 95,74 %
06.12.2017 22:12 6,9 C 6,7 C 5,6 C 84 % 0 lf 1025,5 hPa 0,0 l/m 0 min 0 min 0 W/m 29,3 km/h (5 Bft) 97,87 %
06.12.2017 22:14 6,9 C 6,7 C 5,6 C 84 % 0 lf 1025,4 hPa 0,0 l/m 0 min 0 min 0 W/m 20,3 km/h (4 Bft) 100,00 %
06.12.2017 22:16 6,9 C 6,7 C 5,6 C 84 % 0 lf 1025,4 hPa 0,0 l/m 0 min 0 min 0 W/m 18,0 km/h (3 Bft) 97,87 %
06.12.2017 22:18 6,9 C 6,7 C 5,6 C 84 % 0 lf 1025,4 hPa 0,0 l/m 0 min 0 min 0 W/m 24,8 km/h (4 Bft) 97,87 %
06.12.2017 22:20 6,9 C 6,7 C 5,6 C 84 % 0 lf 1025,5 hPa 0,0 l/m 0 min 0 min 0 W/m 18,0 km/h (3 Bft) 95,65 %
06.12.2017 22:22 6,9 C 6,7 C 5,6 C 84 % 0 lf 1025,4 hPa 0,0 l/m 0 min 0 min 0 W/m 15,8 km/h (3 Bft) 93,62 %
06.12.2017 22:24 6,9 C 6,7 C 5,6 C 84 % 0 lf 1025,4 hPa 0,0 l/m 0 min 0 min 0 W/m 18,0 km/h (3 Bft) 95,74 %
06.12.2017 22:26 6,9 C 6,7 C 5,6 C 84 % 0 lf 1025,4 hPa 0,0 l/m 0 min 0 min 0 W/m 22,5 km/h (4 Bft) 93,62 %
06.12.2017 22:28 6,9 C 6,7 C 5,6 C 84 % 0 lf 1025,4 hPa 0,0 l/m 0 min 0 min 0 W/m 15,8 km/h (3 Bft) 93,62 %
06.12.2017 22:30 6,9 C 6,7 C 5,6 C 84 % 0 lf 1025,4 hPa 0,0 l/m 0 min 0 min 0 W/m 15,8 km/h (3 Bft) 95,65 %
06.12.2017 22:32 6,9 C 6,7 C 5,6 C 83 % 0 lf 1025,3 hPa 0,0 l/m 0 min 0 min 0 W/m 22,5 km/h (4 Bft) 93,62 %
06.12.2017 22:34 6,9 C 6,7 C 5,6 C 83 % 0 lf 1025,3 hPa 0,0 l/m 0 min 0 min 0 W/m 29,3 km/h (5 Bft) 93,62 %
06.12.2017 22:36 6,9 C 6,7 C 5,6 C 83 % 0 lf 1025,3 hPa 0,0 l/m 0 min 0 min 0 W/m 24,8 km/h (4 Bft) 95,74 %
06.12.2017 22:38 6,8 C 6,7 C 5,6 C 83 % 0 lf 1025,2 hPa 0,0 l/m 0 min 0 min 0 W/m 22,5 km/h (4 Bft) 95,74 %
06.12.2017 22:40 6,8 C 6,7 C 5,6 C 83 % 0 lf 1025,3 hPa 0,0 l/m 0 min 0 min 0 W/m 27,0 km/h (4 Bft) 95,74 %
06.12.2017 22:42 6,8 C 6,7 C 5,6 C 83 % 0 lf 1025,2 hPa 0,0 l/m 0 min 0 min 0 W/m 22,5 km/h (4 Bft) 93,48 %
06.12.2017 22:44 6,8 C 6,7 C 5,6 C 83 % 0 lf 1025,1 hPa 0,0 l/m 0 min 0 min 0 W/m 15,8 km/h (3 Bft) 93,62 %
06.12.2017 22:46 6,8 C 6,7 C 5,6 C 83 % 0 lf 1025,2 hPa 0,0 l/m 0 min 0 min 0 W/m 18,0 km/h (3 Bft) 95,74 %
06.12.2017 22:48 6,8 C 6,7 C 5,6 C 83 % 0 lf 1025,1 hPa 0,0 l/m 0 min 0 min 0 W/m 20,3 km/h (4 Bft) 95,74 %
06.12.2017 22:50 6,8 C 6,7 C 5,6 C 82 % 0 lf 1025,1 hPa 0,0 l/m 0 min 0 min 0 W/m 20,3 km/h (4 Bft) 93,62 %
06.12.2017 22:52 6,8 C 6,7 C 5,6 C 82 % 0 lf 1025,2 hPa 0,0 l/m 0 min 0 min 0 W/m 15,8 km/h (3 Bft) 91,49 %
06.12.2017 22:54 6,8 C 6,7 C 5,6 C 82 % 0 lf 1025,1 hPa 0,0 l/m 0 min 0 min 0 W/m 18,0 km/h (3 Bft) 93,48 %
06.12.2017 22:56 6,8 C 6,7 C 5,6 C 82 % 0 lf 1025,1 hPa 0,0 l/m 0 min 0 min 0 W/m 24,8 km/h (4 Bft) 89,36 %
06.12.2017 22:58 6,8 C 6,7 C 5,6 C 82 % 0 lf 1025,1 hPa 0,0 l/m 0 min 0 min 0 W/m 24,8 km/h (4 Bft) 93,62 %
06.12.2017 23:00 6,8 C 6,7 C 5,6 C 82 % 0 lf 1025,1 hPa 0,0 l/m 0 min 0 min 0 W/m 20,3 km/h (4 Bft) 93,62 %
06.12.2017 23:02 6,8 C 6,7 C 5,6 C 82 % 0 lf 1025,1 hPa 0,0 l/m 0 min 0 min 0 W/m 20,3 km/h (4 Bft) 91,49 %
06.12.2017 23:04 6,8 C 6,7 C 5,6 C 82 % 0 lf 1025,0 hPa 0,0 l/m 0 min 0 min 0 W/m 24,8 km/h (4 Bft) 87,23 %
06.12.2017 23:06 6,8 C 6,7 C 5,6 C 82 % 0 lf 1025,0 hPa 0,0 l/m 0 min 0 min 0 W/m 22,5 km/h (4 Bft) 93,48 %
06.12.2017 23:10 6,8 C 6,7 C 5,6 C 82 % 0 lf 1024,9 hPa 0,0 l/m 0 min 0 min 0 W/m 24,8 km/h (4 Bft) 93,62 %
06.12.2017 23:12 6,8 C 6,7 C 5,6 C 81 % 0 lf 1024,9 hPa 0,0 l/m 0 min 0 min 0 W/m 22,5 km/h (4 Bft) 93,62 %
06.12.2017 23:14 6,8 C 6,7 C 5,6 C 81 % 0 lf 1024,9 hPa 0,0 l/m 0 min 0 min 0 W/m 27,0 km/h (4 Bft) 93,62 %
06.12.2017 23:16 6,8 C 6,7 C 5,6 C 81 % 0 lf 1024,8 hPa 0,0 l/m 0 min 0 min 0 W/m 24,8 km/h (4 Bft) 91,49 %
06.12.2017 23:18 6,8 C 6,7 C 5,6 C 81 % 0 lf 1024,9 hPa 0,0 l/m 0 min 0 min 0 W/m 18,0 km/h (3 Bft) 91,30 %
06.12.2017 23:20 6,8 C 6,7 C 5,6 C 81 % 0 lf 1024,8 hPa 0,0 l/m 0 min 0 min 0 W/m 29,3 km/h (5 Bft) 93,62 %
06.12.2017 23:22 6,8 C 6,7 C 5,6 C 81 % 0 lf 1024,8 hPa 0,0 l/m 0 min 0 min 0 W/m 36,0 km/h (5 Bft) 93,62 %
06.12.2017 23:24 6,8 C 6,7 C 5,6 C 81 % 0 lf 1024,8 hPa 0,0 l/m 0 min 0 min 0 W/m 20,3 km/h (4 Bft) 97,87 %
06.12.2017 23:26 6,7 C 6,7 C 5,6 C 81 % 0 lf 1024,8 hPa 0,0 l/m 0 min 0 min 0 W/m 20,3 km/h (4 Bft) 97,87 %
06.12.2017 23:28 6,7 C 6,7 C 5,6 C 81 % 0 lf 1024,8 hPa 0,0 l/m 0 min 0 min 0 W/m 31,5 km/h (5 Bft) 100,00 %
06.12.2017 23:30 6,7 C 6,7 C 5,6 C 80 % 0 lf 1024,7 hPa 0,0 l/m 0 min 0 min 0 W/m 13,5 km/h (3 Bft) 100,00 %
06.12.2017 23:32 6,7 C 6,7 C 5,6 C 80 % 0 lf 1024,7 hPa 0,0 l/m 0 min 0 min 0 W/m 29,3 km/h (5 Bft) 97,87 %
06.12.2017 23:34 6,7 C 6,7 C 5,6 C 80 % 0 lf 1024,7 hPa 0,0 l/m 0 min 0 min 0 W/m 18,0 km/h (3 Bft) 100,00 %
06.12.2017 23:36 6,7 C 6,7 C 5,6 C 80 % 0 lf 1024,6 hPa 0,0 l/m 0 min 0 min 0 W/m 33,8 km/h (5 Bft) 100,00 %
06.12.2017 23:38 6,7 C 6,7 C 5,6 C 80 % 0 lf 1024,7 hPa 0,0 l/m 0 min 0 min 0 W/m 22,5 km/h (4 Bft) 93,62 %
06.12.2017 23:40 6,7 C 6,7 C 5,6 C 80 % 0 lf 1024,7 hPa 0,0 l/m 0 min 0 min 0 W/m 29,3 km/h (5 Bft) 97,87 %
06.12.2017 23:42 6,7 C 6,7 C 5,6 C 80 % 0 lf 1024,7 hPa 0,0 l/m 0 min 0 min 0 W/m 22,5 km/h (4 Bft) 97,83 %
06.12.2017 23:44 6,7 C 6,7 C 5,6 C 80 % 0 lf 1024,7 hPa 0,0 l/m 0 min 0 min 0 W/m 18,0 km/h (3 Bft) 100,00 %
06.12.2017 23:46 6,7 C 6,7 C 5,6 C 80 % 0 lf 1024,7 hPa 0,0 l/m 0 min 0 min 0 W/m 13,5 km/h (3 Bft) 100,00 %
06.12.2017 23:48 6,7 C 6,7 C 5,0 C 80 % 0 lf 1024,7 hPa 0,0 l/m 0 min 0 min 0 W/m 29,3 km/h (5 Bft) 97,87 %
06.12.2017 23:50 6,7 C 6,7 C 5,0 C 80 % 0 lf 1024,6 hPa 0,0 l/m 0 min 0 min 0 W/m 22,5 km/h (4 Bft) 97,87 %
06.12.2017 23:52 6,7 C 6,7 C 5,6 C 80 % 0 lf 1024,6 hPa 0,0 l/m 0 min 0 min 0 W/m 29,3 km/h (5 Bft) 97,83 %
06.12.2017 23:54 6,7 C 6,7 C 5,6 C 79 % 0 lf 1024,5 hPa 0,0 l/m 0 min 0 min 0 W/m 20,3 km/h (4 Bft) 100,00 %
06.12.2017 23:56 6,7 C 6,7 C 5,6 C 79 % 0 lf 1024,4 hPa 0,0 l/m 0 min 0 min 0 W/m 22,5 km/h (4 Bft) 95,74 %
06.12.2017 23:58 6,7 C 6,7 C 5,0 C 79 % 0 lf 1024,3 hPa 0,0 l/m 0 min 0 min 0 W/m 22,5 km/h (4 Bft) 100,00 %
_ Min-Zeit 02:12 00:00 01:44 23:54 00:00 23:58 - - - - 04:26 03:02
Minimum _ 6,0 C 6,1 C 4,4 C 79 % 0 lf 1024,3 hPa - - - - 9,0 km/h (2 Bft) 85,11 %
_ Max-Zeit 13:28 12:12 13:24 17:04 00:00 00:26 00:00 00:00 00:00 12:12 23:22 00:56
Maximum _ 8,5 C 8,9 C 8,3 C 89 % 0 lf 1032,3 hPa 0,0 l/m 0 min 0 min 95 W/m 36,0 km/h
SW (5 Bft)
100,00 %
Durchschnitt _ 7,0 C 7,1 C 5,9 C 87 % 0 lf 1029,1 hPa #0,0 l/m #0 min. #0 min. 50 W/m 19,5 km/h (3 Bft) 96,38 %
© 2017 W. Hausmann